Wetterdaten: Sonntag, 04.12.2022
Datum Zeit Temp. Aussen Temp. o. S. Temp +5cm Feuchte Auss Luftdruck Regen Sonnenschein Regendauer Solar Windben Empfang
04.12.2022 00:00 1,1 C 0,6 C -2,2 C 91 % 1018,0 hPa 0,0 l/m 0 min 0 min 0 W/m 16,1 km/h (3 Bft) 97,87 %
04.12.2022 00:02 1,1 C 0,6 C -2,2 C 91 % 1017,9 hPa 0,0 l/m 0 min 0 min 0 W/m 9,7 km/h (2 Bft) 97,62 %
04.12.2022 00:04 1,1 C 0,6 C -2,2 C 91 % 1018,0 hPa 0,0 l/m 0 min 0 min 0 W/m 6,4 km/h (2 Bft) 97,87 %
04.12.2022 00:08 1,1 C 0,6 C -2,2 C 91 % 1017,9 hPa 0,0 l/m 0 min 0 min 0 W/m 6,4 km/h (2 Bft) 96,34 %
04.12.2022 00:10 1,1 C 0,6 C -2,2 C 91 % 1017,9 hPa 0,0 l/m 0 min 0 min 0 W/m 6,4 km/h (2 Bft) 97,87 %
04.12.2022 00:12 1,1 C 0,6 C -2,2 C 91 % 1017,9 hPa 0,0 l/m 0 min 0 min 0 W/m 9,7 km/h (2 Bft) 95,74 %
04.12.2022 00:14 1,1 C 0,6 C -2,2 C 91 % 1017,9 hPa 0,0 l/m 0 min 0 min 0 W/m 6,4 km/h (2 Bft) 95,74 %
04.12.2022 00:16 1,1 C 0,6 C -2,2 C 91 % 1017,9 hPa 0,0 l/m 0 min 0 min 0 W/m 6,4 km/h (2 Bft) 97,87 %
04.12.2022 00:18 1,1 C 0,6 C -2,2 C 91 % 1017,8 hPa 0,0 l/m 0 min 0 min 0 W/m 6,4 km/h (2 Bft) 95,65 %
04.12.2022 00:20 1,1 C 0,6 C -2,2 C 91 % 1017,8 hPa 0,0 l/m 0 min 0 min 0 W/m 6,4 km/h (2 Bft) 97,87 %
04.12.2022 00:22 1,1 C 0,6 C -2,2 C 91 % 1017,8 hPa 0,0 l/m 0 min 0 min 0 W/m 12,9 km/h (3 Bft) 97,87 %
04.12.2022 00:24 1,1 C 0,6 C -2,2 C 91 % 1017,8 hPa 0,0 l/m 0 min 0 min 0 W/m 9,7 km/h (2 Bft) 97,87 %
04.12.2022 00:26 1,1 C 0,6 C -2,2 C 91 % 1017,8 hPa 0,0 l/m 0 min 0 min 0 W/m 6,4 km/h (2 Bft) 95,74 %
04.12.2022 00:28 1,1 C 0,6 C -2,2 C 91 % 1017,8 hPa 0,0 l/m 0 min 0 min 0 W/m 9,7 km/h (2 Bft) 93,62 %
04.12.2022 00:30 1,1 C 0,6 C -2,2 C 91 % 1017,8 hPa 0,0 l/m 0 min 0 min 0 W/m 9,7 km/h (2 Bft) 95,65 %
04.12.2022 00:32 1,1 C 0,6 C -2,2 C 91 % 1017,8 hPa 0,0 l/m 0 min 0 min 0 W/m 6,4 km/h (2 Bft) 97,87 %
04.12.2022 00:34 1,1 C 0,6 C -2,2 C 91 % 1017,8 hPa 0,0 l/m 0 min 0 min 0 W/m 6,4 km/h (2 Bft) 97,87 %
04.12.2022 00:36 1,1 C 0,6 C -2,2 C 91 % 1017,7 hPa 0,0 l/m 0 min 0 min 0 W/m 6,4 km/h (2 Bft) 35,48 %
04.12.2022 00:38 1,1 C 0,6 C -2,2 C 92 % 1017,7 hPa 0,0 l/m 0 min 0 min 0 W/m 6,4 km/h (2 Bft) 97,87 %
04.12.2022 00:40 1,1 C 0,6 C -2,2 C 92 % 1017,7 hPa 0,0 l/m 0 min 0 min 0 W/m 9,7 km/h (2 Bft) 95,74 %
04.12.2022 00:42 1,1 C 0,6 C -2,2 C 92 % 1017,7 hPa 0,0 l/m 0 min 0 min 0 W/m 12,9 km/h (3 Bft) 100,00 %
04.12.2022 00:44 1,1 C 0,6 C -2,2 C 91 % 1017,8 hPa 0,0 l/m 0 min 0 min 0 W/m 9,7 km/h (2 Bft) 97,87 %
04.12.2022 00:46 1,1 C 0,6 C -2,2 C 91 % 1017,7 hPa 0,0 l/m 0 min 0 min 0 W/m 12,9 km/h (3 Bft) 100,00 %
04.12.2022 00:48 1,1 C 0,6 C -2,2 C 91 % 1017,7 hPa 0,0 l/m 0 min 0 min 0 W/m 9,7 km/h (2 Bft) 100,00 %
04.12.2022 00:50 1,0 C 0,6 C -2,2 C 91 % 1017,7 hPa 0,0 l/m 0 min 0 min 0 W/m 9,7 km/h (2 Bft) 98,18 %
04.12.2022 00:52 1,0 C 0,6 C -2,2 C 91 % 1017,7 hPa 0,0 l/m 0 min 0 min 0 W/m 9,7 km/h (2 Bft) 97,87 %
04.12.2022 00:54 1,0 C 0,6 C -2,2 C 91 % 1017,7 hPa 0,0 l/m 0 min 0 min 0 W/m 6,4 km/h (2 Bft) 97,87 %
04.12.2022 00:56 1,0 C 0,6 C -2,2 C 91 % 1017,7 hPa 0,0 l/m 0 min 0 min 0 W/m 9,7 km/h (2 Bft) 97,87 %
04.12.2022 00:58 1,0 C 0,6 C -2,2 C 92 % 1017,7 hPa 0,0 l/m 0 min 0 min 0 W/m 16,1 km/h (3 Bft) 97,87 %
04.12.2022 01:00 1,0 C 0,6 C -2,2 C 92 % 1017,7 hPa 0,0 l/m 0 min 0 min 0 W/m 6,4 km/h (2 Bft) 98,00 %
04.12.2022 01:02 1,0 C 0,6 C -2,2 C 92 % 1017,7 hPa 0,0 l/m 0 min 0 min 0 W/m 9,7 km/h (2 Bft) 95,92 %
04.12.2022 01:04 1,1 C 0,6 C -2,2 C 92 % 1017,7 hPa 0,0 l/m 0 min 0 min 0 W/m 6,4 km/h (2 Bft) 95,74 %
04.12.2022 01:06 1,0 C 0,6 C -2,2 C 92 % 1017,7 hPa 0,0 l/m 0 min 0 min 0 W/m 6,4 km/h (2 Bft) 97,87 %
04.12.2022 01:08 1,1 C 0,6 C -2,2 C 92 % 1017,7 hPa 0,0 l/m 0 min 0 min 0 W/m 6,4 km/h (2 Bft) 97,87 %
04.12.2022 01:10 1,1 C 0,6 C -2,2 C 92 % 1017,7 hPa 0,0 l/m 0 min 0 min 0 W/m 9,7 km/h (2 Bft) 97,87 %
04.12.2022 01:12 1,1 C 0,6 C -2,2 C 92 % 1017,7 hPa 0,0 l/m 0 min 0 min 0 W/m 9,7 km/h (2 Bft) 97,83 %
04.12.2022 01:14 1,1 C 0,6 C -2,2 C 92 % 1017,7 hPa 0,0 l/m 0 min 0 min 0 W/m 6,4 km/h (2 Bft) 97,87 %
04.12.2022 01:16 1,1 C 0,6 C -2,2 C 92 % 1017,6 hPa 0,0 l/m 0 min 0 min 0 W/m 6,4 km/h (2 Bft) 97,87 %
04.12.2022 01:18 1,1 C 0,6 C -2,2 C 92 % 1017,6 hPa 0,0 l/m 0 min 0 min 0 W/m 6,4 km/h (2 Bft) 97,87 %
04.12.2022 01:20 1,0 C 0,6 C -2,2 C 92 % 1017,6 hPa 0,0 l/m 0 min 0 min 0 W/m 12,9 km/h (3 Bft) 95,74 %
04.12.2022 01:22 1,0 C 0,6 C -2,2 C 92 % 1017,6 hPa 0,0 l/m 0 min 0 min 0 W/m 16,1 km/h (3 Bft) 97,87 %
04.12.2022 01:24 1,0 C 0,6 C -2,2 C 92 % 1017,6 hPa 0,0 l/m 0 min 0 min 0 W/m 12,9 km/h (3 Bft) 97,83 %
04.12.2022 01:26 1,0 C 0,6 C -2,2 C 92 % 1017,6 hPa 0,0 l/m 0 min 0 min 0 W/m 9,7 km/h (2 Bft) 97,87 %
04.12.2022 01:28 1,0 C 0,6 C -2,2 C 92 % 1017,6 hPa 0,0 l/m 0 min 0 min 0 W/m 12,9 km/h (3 Bft) 97,87 %
04.12.2022 01:30 1,0 C 0,6 C -2,2 C 92 % 1017,6 hPa 0,0 l/m 0 min 0 min 0 W/m 9,7 km/h (2 Bft) 95,74 %
04.12.2022 01:32 1,0 C 0,6 C -2,2 C 92 % 1017,5 hPa 0,0 l/m 0 min 0 min 0 W/m 9,7 km/h (2 Bft) 97,87 %
04.12.2022 01:34 1,0 C 0,6 C -2,2 C 92 % 1017,5 hPa 0,0 l/m 0 min 0 min 0 W/m 9,7 km/h (2 Bft) 97,83 %
04.12.2022 01:36 1,0 C 0,6 C -2,2 C 92 % 1017,5 hPa 0,0 l/m 0 min 0 min 0 W/m 9,7 km/h (2 Bft) 100,00 %
04.12.2022 01:38 1,0 C 0,6 C -2,2 C 92 % 1017,5 hPa 0,0 l/m 0 min 0 min 0 W/m 6,4 km/h (2 Bft) 100,00 %
04.12.2022 01:40 1,0 C 0,6 C -2,2 C 92 % 1017,5 hPa 0,0 l/m 0 min 0 min 0 W/m 6,4 km/h (2 Bft) 100,00 %
04.12.2022 01:42 1,0 C 0,6 C -2,2 C 92 % 1017,5 hPa 0,0 l/m 0 min 0 min 0 W/m 6,4 km/h (2 Bft) 100,00 %
04.12.2022 01:44 0,9 C 0,6 C -2,2 C 92 % 1017,5 hPa 0,0 l/m 0 min 0 min 0 W/m 6,4 km/h (2 Bft) 100,00 %
04.12.2022 01:46 1,0 C 0,6 C -2,2 C 92 % 1017,5 hPa 0,0 l/m 0 min 0 min 0 W/m 6,4 km/h (2 Bft) 97,87 %
04.12.2022 01:48 1,0 C 0,6 C -2,2 C 92 % 1017,4 hPa 0,0 l/m 0 min 0 min 0 W/m 9,7 km/h (2 Bft) 95,65 %
04.12.2022 01:50 1,0 C 0,6 C -2,2 C 92 % 1017,4 hPa 0,0 l/m 0 min 0 min 0 W/m 6,4 km/h (2 Bft) 97,87 %
04.12.2022 01:52 0,9 C 0,6 C -2,2 C 92 % 1017,4 hPa 0,0 l/m 0 min 0 min 0 W/m 6,4 km/h (2 Bft) 100,00 %
04.12.2022 01:54 1,0 C 0,6 C -2,2 C 92 % 1017,4 hPa 0,0 l/m 0 min 0 min 0 W/m 6,4 km/h (2 Bft) 100,00 %
04.12.2022 01:56 0,9 C 0,6 C -2,2 C 92 % 1017,4 hPa 0,0 l/m 0 min 0 min 0 W/m 9,7 km/h (2 Bft) 100,00 %
04.12.2022 01:58 0,9 C 0,6 C -2,2 C 92 % 1017,4 hPa 0,0 l/m 0 min 0 min 0 W/m 9,7 km/h (2 Bft) 97,87 %
04.12.2022 02:00 0,9 C 0,6 C -2,2 C 92 % 1017,3 hPa 0,0 l/m 0 min 0 min 0 W/m 9,7 km/h (2 Bft) 97,83 %
04.12.2022 02:02 0,9 C 0,6 C -2,2 C 92 % 1017,3 hPa 0,0 l/m 0 min 0 min 0 W/m 6,4 km/h (2 Bft) 97,87 %
04.12.2022 02:04 0,9 C 0,6 C -2,2 C 92 % 1017,4 hPa 0,0 l/m 0 min 0 min 0 W/m 9,7 km/h (2 Bft) 97,87 %
04.12.2022 02:06 0,9 C 0,6 C -2,2 C 92 % 1017,4 hPa 0,0 l/m 0 min 0 min 0 W/m 12,9 km/h (3 Bft) 97,87 %
04.12.2022 02:08 0,9 C 0,6 C -2,2 C 92 % 1017,4 hPa 0,0 l/m 0 min 0 min 0 W/m 9,7 km/h (2 Bft) 97,87 %
04.12.2022 02:10 0,9 C 0,6 C -2,2 C 92 % 1017,5 hPa 0,0 l/m 0 min 0 min 0 W/m 9,7 km/h (2 Bft) 97,83 %
04.12.2022 02:12 0,9 C 0,6 C -2,2 C 92 % 1017,5 hPa 0,0 l/m 0 min 0 min 0 W/m 6,4 km/h (2 Bft) 95,74 %
04.12.2022 02:14 0,9 C 0,6 C -2,2 C 92 % 1017,5 hPa 0,0 l/m 0 min 0 min 0 W/m 6,4 km/h (2 Bft) 97,87 %
04.12.2022 02:16 0,9 C 0,6 C -2,2 C 92 % 1017,5 hPa 0,0 l/m 0 min 0 min 0 W/m 6,4 km/h (2 Bft) 97,87 %
04.12.2022 02:18 0,9 C 0,6 C -2,2 C 92 % 1017,5 hPa 0,0 l/m 0 min 0 min 0 W/m 9,7 km/h (2 Bft) 97,87 %
04.12.2022 02:20 0,9 C 0,6 C -2,2 C 92 % 1017,5 hPa 0,0 l/m 0 min 0 min 0 W/m 6,4 km/h (2 Bft) 97,87 %
04.12.2022 02:22 0,9 C 0,6 C -2,2 C 92 % 1017,5 hPa 0,0 l/m 0 min 0 min 0 W/m 6,4 km/h (2 Bft) 97,83 %
04.12.2022 02:24 0,9 C 0,6 C -2,2 C 92 % 1017,5 hPa 0,0 l/m 0 min 0 min 0 W/m 9,7 km/h (2 Bft) 97,87 %
04.12.2022 02:26 0,9 C 0,6 C -2,2 C 92 % 1017,5 hPa 0,0 l/m 0 min 0 min 0 W/m 9,7 km/h (2 Bft) 95,74 %
04.12.2022 02:28 0,9 C 0,6 C -2,2 C 92 % 1017,5 hPa 0,0 l/m 0 min 0 min 0 W/m 16,1 km/h (3 Bft) 93,62 %
04.12.2022 02:30 0,9 C 0,6 C -2,2 C 92 % 1017,5 hPa 0,0 l/m 0 min 0 min 0 W/m 9,7 km/h (2 Bft) 97,87 %
04.12.2022 02:32 1,0 C 0,6 C -2,2 C 92 % 1017,5 hPa 0,0 l/m 0 min 0 min 0 W/m 6,4 km/h (2 Bft) 97,87 %
04.12.2022 02:34 0,9 C 0,6 C -2,2 C 92 % 1017,5 hPa 0,0 l/m 0 min 0 min 0 W/m 6,4 km/h (2 Bft) 97,83 %
04.12.2022 02:36 0,9 C 0,6 C -2,2 C 92 % 1017,5 hPa 0,0 l/m 0 min 0 min 0 W/m 9,7 km/h (2 Bft) 97,87 %
04.12.2022 02:38 0,9 C 0,6 C -2,2 C 92 % 1017,4 hPa 0,0 l/m 0 min 0 min 0 W/m 12,9 km/h (3 Bft) 97,87 %
04.12.2022 02:40 0,9 C 0,6 C -2,2 C 92 % 1017,4 hPa 0,0 l/m 0 min 0 min 0 W/m 9,7 km/h (2 Bft) 97,87 %
04.12.2022 02:42 0,9 C 0,6 C -2,2 C 92 % 1017,5 hPa 0,0 l/m 0 min 0 min 0 W/m 6,4 km/h (2 Bft) 97,87 %
04.12.2022 02:44 0,9 C 0,6 C -2,2 C 92 % 1017,5 hPa 0,0 l/m 0 min 0 min 0 W/m 12,9 km/h (3 Bft) 95,74 %
04.12.2022 02:46 0,9 C 0,6 C -2,2 C 92 % 1017,5 hPa 0,0 l/m 0 min 0 min 0 W/m 9,7 km/h (2 Bft) 97,83 %
04.12.2022 02:48 0,9 C 0,6 C -2,2 C 92 % 1017,5 hPa 0,0 l/m 0 min 0 min 0 W/m 12,9 km/h (3 Bft) 97,87 %
04.12.2022 02:50 0,9 C 0,6 C -2,2 C 92 % 1017,5 hPa 0,0 l/m 0 min 0 min 0 W/m 9,7 km/h (2 Bft) 97,87 %
04.12.2022 02:52 0,9 C 0,6 C -2,2 C 92 % 1017,5 hPa 0,0 l/m 0 min 0 min 0 W/m 9,7 km/h (2 Bft) 95,74 %
04.12.2022 02:54 0,9 C 0,6 C -2,2 C 92 % 1017,4 hPa 0,0 l/m 0 min 0 min 0 W/m 6,4 km/h (2 Bft) 97,87 %
04.12.2022 02:56 0,9 C 0,6 C -2,2 C 92 % 1017,5 hPa 0,0 l/m 0 min 0 min 0 W/m 9,7 km/h (2 Bft) 97,87 %
04.12.2022 02:58 0,9 C 0,6 C -2,2 C 92 % 1017,4 hPa 0,0 l/m 0 min 0 min 0 W/m 9,7 km/h (2 Bft) 91,49 %
04.12.2022 03:00 0,9 C 0,6 C -2,2 C 92 % 1017,4 hPa 0,0 l/m 0 min 0 min 0 W/m 12,9 km/h (3 Bft) 97,83 %
04.12.2022 03:02 0,9 C 0,6 C -2,2 C 92 % 1017,4 hPa 0,0 l/m 0 min 0 min 0 W/m 9,7 km/h (2 Bft) 95,74 %
04.12.2022 03:04 0,9 C 0,6 C -2,2 C 92 % 1017,3 hPa 0,0 l/m 0 min 0 min 0 W/m 9,7 km/h (2 Bft) 95,74 %
04.12.2022 03:06 0,9 C 0,6 C -2,2 C 92 % 1017,3 hPa 0,0 l/m 0 min 0 min 0 W/m 9,7 km/h (2 Bft) 95,74 %
04.12.2022 03:08 0,9 C 0,6 C -2,2 C 92 % 1017,3 hPa 0,0 l/m 0 min 0 min 0 W/m 9,7 km/h (2 Bft) 95,74 %
04.12.2022 03:10 0,9 C 0,6 C -2,2 C 92 % 1017,3 hPa 0,0 l/m 0 min 0 min 0 W/m 9,7 km/h (2 Bft) 97,83 %
04.12.2022 03:12 0,9 C 0,6 C -2,2 C 92 % 1017,3 hPa 0,0 l/m 0 min 0 min 0 W/m 6,4 km/h (2 Bft) 97,87 %
04.12.2022 03:14 0,9 C 0,6 C -2,2 C 92 % 1017,3 hPa 0,0 l/m 0 min 0 min 0 W/m 12,9 km/h (3 Bft) 97,87 %
04.12.2022 03:16 0,9 C 0,6 C -2,2 C 92 % 1017,3 hPa 0,0 l/m 0 min 0 min 0 W/m 9,7 km/h (2 Bft) 93,62 %
04.12.2022 03:18 0,9 C 0,6 C -2,2 C 92 % 1017,3 hPa 0,0 l/m 0 min 0 min 0 W/m 9,7 km/h (2 Bft) 95,74 %
04.12.2022 03:20 0,9 C 0,6 C -2,2 C 92 % 1017,3 hPa 0,0 l/m 0 min 0 min 0 W/m 9,7 km/h (2 Bft) 97,87 %
04.12.2022 03:22 0,9 C 0,6 C -2,2 C 92 % 1017,3 hPa 0,0 l/m 0 min 0 min 0 W/m 9,7 km/h (2 Bft) 97,83 %
04.12.2022 03:24 0,9 C 0,6 C -2,2 C 91 % 1017,3 hPa 0,0 l/m 0 min 0 min 0 W/m 9,7 km/h (2 Bft) 97,87 %
04.12.2022 03:26 0,9 C 0,6 C -2,2 C 91 % 1017,3 hPa 0,0 l/m 0 min 0 min 0 W/m 6,4 km/h (2 Bft) 95,74 %
04.12.2022 03:28 0,9 C 0,6 C -2,2 C 92 % 1017,3 hPa 0,0 l/m 0 min 0 min 0 W/m 6,4 km/h (2 Bft) 97,87 %
04.12.2022 03:30 0,9 C 0,6 C -2,2 C 92 % 1017,3 hPa 0,0 l/m 0 min 0 min 0 W/m 6,4 km/h (2 Bft) 97,87 %
04.12.2022 03:32 1,0 C 0,6 C -2,2 C 92 % 1017,3 hPa 0,0 l/m 0 min 0 min 0 W/m 12,9 km/h (3 Bft) 95,74 %
04.12.2022 03:34 0,9 C 0,6 C -2,2 C 91 % 1017,3 hPa 0,0 l/m 0 min 0 min 0 W/m 9,7 km/h (2 Bft) 97,83 %
04.12.2022 03:36 0,9 C 0,6 C -2,2 C 92 % 1017,4 hPa 0,0 l/m 0 min 0 min 0 W/m 9,7 km/h (2 Bft) 95,74 %
04.12.2022 03:38 0,9 C 0,6 C -2,2 C 91 % 1017,3 hPa 0,0 l/m 0 min 0 min 0 W/m 9,7 km/h (2 Bft) 95,74 %
04.12.2022 03:40 0,9 C 0,6 C -2,2 C 92 % 1017,3 hPa 0,0 l/m 0 min 0 min 0 W/m 12,9 km/h (3 Bft) 95,74 %
04.12.2022 03:42 1,0 C 0,6 C -2,2 C 92 % 1017,2 hPa 0,0 l/m 0 min 0 min 0 W/m 16,1 km/h (3 Bft) 95,74 %
04.12.2022 03:44 0,9 C 0,6 C -2,2 C 91 % 1017,2 hPa 0,0 l/m 0 min 0 min 0 W/m 12,9 km/h (3 Bft) 97,87 %
04.12.2022 03:46 0,9 C 0,6 C -2,2 C 92 % 1017,2 hPa 0,0 l/m 0 min 0 min 0 W/m 12,9 km/h (3 Bft) 93,48 %
04.12.2022 03:48 1,0 C 0,6 C -2,2 C 91 % 1017,2 hPa 0,0 l/m 0 min 0 min 0 W/m 6,4 km/h (2 Bft) 95,74 %
04.12.2022 03:50 1,0 C 0,6 C -2,2 C 92 % 1017,3 hPa 0,0 l/m 0 min 0 min 0 W/m 6,4 km/h (2 Bft) 93,62 %
04.12.2022 03:52 1,0 C 0,6 C -2,2 C 92 % 1017,3 hPa 0,0 l/m 0 min 0 min 0 W/m 9,7 km/h (2 Bft) 93,62 %
04.12.2022 03:54 1,0 C 0,6 C -2,2 C 92 % 1017,3 hPa 0,0 l/m 0 min 0 min 0 W/m 6,4 km/h (2 Bft) 93,62 %
04.12.2022 03:56 1,0 C 0,6 C -2,2 C 92 % 1017,2 hPa 0,0 l/m 0 min 0 min 0 W/m 9,7 km/h (2 Bft) 95,74 %
04.12.2022 03:58 1,0 C 0,6 C -2,2 C 92 % 1017,3 hPa 0,0 l/m 0 min 0 min 0 W/m 6,4 km/h (2 Bft) 93,48 %
04.12.2022 04:00 1,0 C 0,6 C -2,2 C 92 % 1017,3 hPa 0,0 l/m 0 min 0 min 0 W/m 6,4 km/h (2 Bft) 95,74 %
04.12.2022 04:02 1,0 C 0,6 C -2,2 C 92 % 1017,2 hPa 0,0 l/m 0 min 0 min 0 W/m 6,4 km/h (2 Bft) 87,50 %
04.12.2022 04:04 1,0 C 0,6 C -2,2 C 92 % 1017,3 hPa 0,0 l/m 0 min 0 min 0 W/m 9,7 km/h (2 Bft) 97,87 %
04.12.2022 04:06 1,0 C 0,6 C -2,2 C 92 % 1017,3 hPa 0,0 l/m 0 min 0 min 0 W/m 6,4 km/h (2 Bft) 95,74 %
04.12.2022 04:08 1,0 C 0,6 C -2,2 C 92 % 1017,3 hPa 0,0 l/m 0 min 0 min 0 W/m 9,7 km/h (2 Bft) 97,87 %
04.12.2022 04:10 1,0 C 0,6 C -2,2 C 92 % 1017,3 hPa 0,0 l/m 0 min 0 min 0 W/m 12,9 km/h (3 Bft) 97,83 %
04.12.2022 04:12 1,0 C 0,6 C -2,2 C 92 % 1017,3 hPa 0,0 l/m 0 min 0 min 0 W/m 6,4 km/h (2 Bft) 97,87 %
04.12.2022 04:14 1,0 C 0,6 C -2,2 C 92 % 1017,2 hPa 0,0 l/m 0 min 0 min 0 W/m 3,2 km/h (1 Bft) 97,87 %
04.12.2022 04:16 1,0 C 0,6 C -2,2 C 92 % 1017,2 hPa 0,0 l/m 0 min 0 min 0 W/m 6,4 km/h (2 Bft) 97,87 %
04.12.2022 04:18 1,0 C 0,6 C -2,2 C 92 % 1017,3 hPa 0,0 l/m 0 min 0 min 0 W/m 12,9 km/h (3 Bft) 100,00 %
04.12.2022 04:20 1,0 C 0,6 C -2,2 C 92 % 1017,3 hPa 0,0 l/m 0 min 0 min 0 W/m 6,4 km/h (2 Bft) 100,00 %
04.12.2022 04:22 1,0 C 0,6 C -2,2 C 92 % 1017,3 hPa 0,0 l/m 0 min 0 min 0 W/m 6,4 km/h (2 Bft) 97,83 %
04.12.2022 04:24 1,0 C 0,6 C -2,2 C 92 % 1017,4 hPa 0,0 l/m 0 min 0 min 0 W/m 6,4 km/h (2 Bft) 100,00 %
04.12.2022 04:26 1,0 C 0,6 C -2,2 C 92 % 1017,4 hPa 0,0 l/m 0 min 0 min 0 W/m 6,4 km/h (2 Bft) 100,00 %
04.12.2022 04:28 1,0 C 0,6 C -2,2 C 92 % 1017,3 hPa 0,0 l/m 0 min 0 min 0 W/m 9,7 km/h (2 Bft) 97,87 %
04.12.2022 04:30 1,0 C 0,6 C -2,2 C 92 % 1017,3 hPa 0,0 l/m 0 min 0 min 0 W/m 6,4 km/h (2 Bft) 100,00 %
04.12.2022 04:32 1,0 C 0,6 C -2,2 C 92 % 1017,3 hPa 0,0 l/m 0 min 0 min 0 W/m 9,7 km/h (2 Bft) 100,00 %
04.12.2022 04:34 1,0 C 0,6 C -2,2 C 92 % 1017,3 hPa 0,0 l/m 0 min 0 min 0 W/m 9,7 km/h (2 Bft) 100,00 %
04.12.2022 04:36 0,9 C 0,6 C -2,2 C 92 % 1017,3 hPa 0,0 l/m 0 min 0 min 0 W/m 6,4 km/h (2 Bft) 100,00 %
04.12.2022 04:38 0,9 C 0,6 C -2,2 C 92 % 1017,3 hPa 0,0 l/m 0 min 0 min 0 W/m 9,7 km/h (2 Bft) 100,00 %
04.12.2022 04:40 0,9 C 0,6 C -2,2 C 92 % 1017,3 hPa 0,0 l/m 0 min 0 min 0 W/m 6,4 km/h (2 Bft) 100,00 %
04.12.2022 04:42 0,9 C 0,6 C -2,2 C 92 % 1017,3 hPa 0,0 l/m 0 min 0 min 0 W/m 6,4 km/h (2 Bft) 100,00 %
04.12.2022 04:44 0,9 C 0,6 C -2,2 C 92 % 1017,3 hPa 0,0 l/m 0 min 0 min 0 W/m 6,4 km/h (2 Bft) 97,83 %
04.12.2022 04:46 0,9 C 0,6 C -2,2 C 92 % 1017,4 hPa 0,0 l/m 0 min 0 min 0 W/m 6,4 km/h (2 Bft) 100,00 %
04.12.2022 04:48 0,9 C 0,6 C -2,2 C 92 % 1017,3 hPa 0,0 l/m 0 min 0 min 0 W/m 6,4 km/h (2 Bft) 100,00 %
04.12.2022 04:50 0,9 C 0,6 C -2,2 C 92 % 1017,3 hPa 0,0 l/m 0 min 0 min 0 W/m 9,7 km/h (2 Bft) 100,00 %
04.12.2022 04:52 0,9 C 0,6 C -2,2 C 92 % 1017,2 hPa 0,0 l/m 0 min 0 min 0 W/m 6,4 km/h (2 Bft) 97,87 %
04.12.2022 04:54 0,9 C 0,6 C -2,2 C 92 % 1017,3 hPa 0,0 l/m 0 min 0 min 0 W/m 9,7 km/h (2 Bft) 97,87 %
04.12.2022 04:56 0,9 C 0,6 C -2,2 C 92 % 1017,2 hPa 0,0 l/m 0 min 0 min 0 W/m 6,4 km/h (2 Bft) 100,00 %
04.12.2022 04:58 0,9 C 0,6 C -2,2 C 92 % 1017,3 hPa 0,0 l/m 0 min 0 min 0 W/m 6,4 km/h (2 Bft) 100,00 %
04.12.2022 05:00 0,9 C 0,6 C -2,2 C 92 % 1017,2 hPa 0,0 l/m 0 min 0 min 0 W/m 6,4 km/h (2 Bft) 100,00 %
04.12.2022 05:02 0,8 C 0,0 C -2,2 C 92 % 1017,2 hPa 0,0 l/m 0 min 0 min 0 W/m 9,7 km/h (2 Bft) 100,00 %
04.12.2022 05:04 0,8 C 0,0 C -2,2 C 92 % 1017,3 hPa 0,0 l/m 0 min 0 min 0 W/m 12,9 km/h (3 Bft) 100,00 %
04.12.2022 05:06 0,8 C 0,0 C -2,2 C 92 % 1017,3 hPa 0,0 l/m 0 min 0 min 0 W/m 12,9 km/h (3 Bft) 100,00 %
04.12.2022 05:08 0,8 C 0,0 C -2,2 C 92 % 1017,3 hPa 0,0 l/m 0 min 0 min 0 W/m 6,4 km/h (2 Bft) 100,00 %
04.12.2022 05:10 0,8 C 0,0 C -2,2 C 92 % 1017,3 hPa 0,0 l/m 0 min 0 min 0 W/m 9,7 km/h (2 Bft) 100,00 %
04.12.2022 05:12 0,8 C 0,0 C -2,2 C 92 % 1017,3 hPa 0,0 l/m 0 min 0 min 0 W/m 12,9 km/h (3 Bft) 100,00 %
04.12.2022 05:14 0,8 C 0,0 C -2,2 C 92 % 1017,3 hPa 0,0 l/m 0 min 0 min 0 W/m 9,7 km/h (2 Bft) 100,00 %
04.12.2022 05:16 0,8 C 0,0 C -2,2 C 92 % 1017,2 hPa 0,0 l/m 0 min 0 min 0 W/m 9,7 km/h (2 Bft) 100,00 %
04.12.2022 05:18 0,8 C 0,0 C -2,2 C 92 % 1017,2 hPa 0,0 l/m 0 min 0 min 0 W/m 3,2 km/h (1 Bft) 97,87 %
04.12.2022 05:20 0,8 C 0,0 C -2,2 C 92 % 1017,3 hPa 0,0 l/m 0 min 0 min 0 W/m 6,4 km/h (2 Bft) 55,56 %
04.12.2022 05:22 0,7 C 0,0 C -2,2 C 92 % 1017,3 hPa 0,0 l/m 0 min 0 min 0 W/m 6,4 km/h (2 Bft) 100,00 %
04.12.2022 05:24 0,7 C 0,0 C -2,8 C 92 % 1017,3 hPa 0,0 l/m 0 min 0 min 0 W/m 12,9 km/h (3 Bft) 95,74 %
04.12.2022 05:26 0,7 C 0,0 C -2,8 C 92 % 1017,3 hPa 0,0 l/m 0 min 0 min 0 W/m 6,4 km/h (2 Bft) 100,00 %
04.12.2022 05:28 0,7 C 0,0 C -2,8 C 92 % 1017,3 hPa 0,0 l/m 0 min 0 min 0 W/m 6,4 km/h (2 Bft) 100,00 %
04.12.2022 05:30 0,7 C 0,0 C -2,8 C 92 % 1017,3 hPa 0,0 l/m 0 min 0 min 0 W/m 6,4 km/h (2 Bft) 100,00 %
04.12.2022 05:32 0,6 C 0,0 C -2,8 C 92 % 1017,3 hPa 0,0 l/m 0 min 0 min 0 W/m 6,4 km/h (2 Bft) 100,00 %
04.12.2022 05:34 0,6 C 0,0 C -2,8 C 92 % 1017,3 hPa 0,0 l/m 0 min 0 min 0 W/m 3,2 km/h (1 Bft) 95,74 %
04.12.2022 05:36 0,6 C 0,0 C -2,8 C 92 % 1017,3 hPa 0,0 l/m 0 min 0 min 0 W/m 3,2 km/h (1 Bft) 97,87 %
04.12.2022 05:38 0,6 C 0,0 C -2,8 C 92 % 1017,2 hPa 0,0 l/m 0 min 0 min 0 W/m 6,4 km/h (2 Bft) 93,62 %
04.12.2022 05:40 0,6 C -0,6 C -2,8 C 92 % 1017,3 hPa 0,0 l/m 0 min 0 min 0 W/m 9,7 km/h (2 Bft) 95,74 %
04.12.2022 05:42 0,6 C -0,6 C -2,8 C 92 % 1017,2 hPa 0,0 l/m 0 min 0 min 0 W/m 6,4 km/h (2 Bft) 95,74 %
04.12.2022 05:44 0,5 C -0,6 C -2,8 C 92 % 1017,3 hPa 0,0 l/m 0 min 0 min 0 W/m 6,4 km/h (2 Bft) 93,48 %
04.12.2022 05:46 0,5 C -0,6 C -2,8 C 92 % 1017,3 hPa 0,0 l/m 0 min 0 min 0 W/m 6,4 km/h (2 Bft) 95,74 %
04.12.2022 05:48 0,4 C -0,6 C -3,3 C 92 % 1017,3 hPa 0,0 l/m 0 min 0 min 0 W/m 3,2 km/h (1 Bft) 93,62 %
04.12.2022 05:50 0,4 C -0,6 C -3,3 C 92 % 1017,3 hPa 0,0 l/m 0 min 0 min 0 W/m 6,4 km/h (2 Bft) 95,74 %
04.12.2022 05:52 0,3 C -0,6 C -3,3 C 92 % 1017,3 hPa 0,0 l/m 0 min 0 min 0 W/m 6,4 km/h (2 Bft) 93,62 %
04.12.2022 05:54 0,3 C -0,6 C -3,3 C 92 % 1017,3 hPa 0,0 l/m 0 min 0 min 0 W/m 6,4 km/h (2 Bft) 89,13 %
04.12.2022 05:56 0,3 C -0,6 C -3,3 C 92 % 1017,2 hPa 0,0 l/m 0 min 0 min 0 W/m 9,7 km/h (2 Bft) 91,49 %
04.12.2022 05:58 0,3 C -1,1 C -3,3 C 92 % 1017,2 hPa 0,0 l/m 0 min 0 min 0 W/m 6,4 km/h (2 Bft) 93,62 %
04.12.2022 06:00 0,2 C -1,1 C -3,3 C 92 % 1017,2 hPa 0,0 l/m 0 min 0 min 0 W/m 3,2 km/h (1 Bft) 91,49 %
04.12.2022 06:02 0,2 C -1,1 C -3,3 C 92 % 1017,2 hPa 0,0 l/m 0 min 0 min 0 W/m 3,2 km/h (1 Bft) 93,62 %
04.12.2022 06:04 0,2 C -1,1 C -3,3 C 92 % 1017,2 hPa 0,0 l/m 0 min 0 min 0 W/m 3,2 km/h (1 Bft) 91,49 %
04.12.2022 06:08 0,1 C -1,1 C -3,3 C 92 % 1017,2 hPa 0,0 l/m 0 min 0 min 0 W/m 6,4 km/h (2 Bft) 95,24 %
04.12.2022 06:10 0,1 C -1,1 C -3,3 C 92 % 1017,2 hPa 0,0 l/m 0 min 0 min 0 W/m 3,2 km/h (1 Bft) 95,65 %
04.12.2022 06:12 0,1 C -1,1 C -3,3 C 92 % 1017,2 hPa 0,0 l/m 0 min 0 min 0 W/m 3,2 km/h (1 Bft) 95,74 %
04.12.2022 06:14 0,1 C -1,1 C -3,3 C 92 % 1017,2 hPa 0,0 l/m 0 min 0 min 0 W/m 3,2 km/h (1 Bft) 95,74 %
04.12.2022 06:16 0,1 C -1,1 C -3,3 C 93 % 1017,2 hPa 0,0 l/m 0 min 0 min 0 W/m 6,4 km/h (2 Bft) 93,62 %
04.12.2022 06:18 0,1 C -1,1 C -3,3 C 93 % 1017,2 hPa 0,0 l/m 0 min 0 min 0 W/m 6,4 km/h (2 Bft) 93,62 %
04.12.2022 06:20 0,1 C -1,1 C -3,3 C 93 % 1017,1 hPa 0,0 l/m 0 min 0 min 0 W/m 3,2 km/h (1 Bft) 95,74 %
04.12.2022 06:22 0,1 C -1,1 C -3,3 C 93 % 1017,2 hPa 0,0 l/m 0 min 0 min 0 W/m 3,2 km/h (1 Bft) 93,48 %
04.12.2022 06:24 0,0 C -1,1 C -3,3 C 93 % 1017,2 hPa 0,0 l/m 0 min 0 min 0 W/m 0,0 km/h (0 Bft) 95,74 %
04.12.2022 06:26 0,0 C -1,1 C -3,3 C 93 % 1017,2 hPa 0,0 l/m 0 min 0 min 0 W/m 0,0 km/h (0 Bft) 97,87 %
04.12.2022 06:28 0,0 C -1,1 C -3,3 C 93 % 1017,2 hPa 0,0 l/m 0 min 0 min 0 W/m 0,0 km/h (0 Bft) 97,87 %
04.12.2022 06:30 0,0 C -1,1 C -3,3 C 93 % 1017,2 hPa 0,0 l/m 0 min 0 min 0 W/m 0,0 km/h (0 Bft) 100,00 %
04.12.2022 06:32 0,0 C -1,1 C -3,3 C 93 % 1017,1 hPa 0,0 l/m 0 min 0 min 0 W/m 0,0 km/h (0 Bft) 97,87 %
04.12.2022 06:34 0,0 C -1,1 C -3,3 C 93 % 1017,1 hPa 0,0 l/m 0 min 0 min 0 W/m 6,4 km/h (2 Bft) 95,65 %
04.12.2022 06:36 0,0 C -1,1 C -3,3 C 93 % 1017,1 hPa 0,0 l/m 0 min 0 min 0 W/m 6,4 km/h (2 Bft) 97,87 %
04.12.2022 06:38 -0,1 C -1,1 C -3,3 C 93 % 1017,1 hPa 0,0 l/m 0 min 0 min 0 W/m 6,4 km/h (2 Bft) 100,00 %
04.12.2022 06:40 -0,1 C -1,1 C -3,3 C 93 % 1017,2 hPa 0,0 l/m 0 min 0 min 0 W/m 6,4 km/h (2 Bft) 97,87 %
04.12.2022 06:42 -0,1 C -1,1 C -3,3 C 93 % 1017,1 hPa 0,0 l/m 0 min 0 min 0 W/m 9,7 km/h (2 Bft) 100,00 %
04.12.2022 06:44 -0,1 C -1,1 C -3,3 C 93 % 1017,1 hPa 0,0 l/m 0 min 0 min 0 W/m 3,2 km/h (1 Bft) 97,87 %
04.12.2022 06:46 -0,1 C -1,1 C -3,3 C 93 % 1017,1 hPa 0,0 l/m 0 min 0 min 0 W/m 6,4 km/h (2 Bft) 100,00 %
04.12.2022 06:48 -0,1 C -1,1 C -3,3 C 93 % 1017,1 hPa 0,0 l/m 0 min 0 min 0 W/m 6,4 km/h (2 Bft) 100,00 %
04.12.2022 06:50 -0,1 C -1,1 C -3,3 C 93 % 1017,0 hPa 0,0 l/m 0 min 0 min 0 W/m 6,4 km/h (2 Bft) 100,00 %
04.12.2022 06:56 -0,1 C -1,1 C -3,3 C 93 % 1017,0 hPa 0,0 l/m 0 min 0 min 0 W/m 6,4 km/h (2 Bft) 100,00 %
04.12.2022 06:58 -0,1 C -1,1 C -3,3 C 93 % 1017,1 hPa 0,0 l/m 0 min 0 min 0 W/m 6,4 km/h (2 Bft) 97,83 %
04.12.2022 07:03 -0,1 C -1,1 C -3,3 C 93 % 1017,1 hPa 0,0 l/m 0 min 0 min 0 W/m 6,4 km/h (2 Bft) 100,00 %
04.12.2022 07:04 -0,2 C -1,1 C -3,3 C 93 % 1017,1 hPa 0,0 l/m 0 min 0 min 0 W/m 3,2 km/h (1 Bft) 100,00 %
04.12.2022 07:06 -0,2 C -1,1 C -3,3 C 93 % 1017,1 hPa 0,0 l/m 0 min 0 min 0 W/m 3,2 km/h (1 Bft) 100,00 %
04.12.2022 07:08 -0,2 C -1,1 C -3,3 C 93 % 1017,1 hPa 0,0 l/m 0 min 0 min 0 W/m 9,7 km/h (2 Bft) 97,87 %
04.12.2022 07:10 -0,2 C -1,1 C -3,3 C 93 % 1017,1 hPa 0,0 l/m 0 min 0 min 0 W/m 3,2 km/h (1 Bft) 100,00 %
04.12.2022 07:12 -0,2 C -1,1 C -3,3 C 93 % 1017,1 hPa 0,0 l/m 0 min 0 min 0 W/m 3,2 km/h (1 Bft) 100,00 %
04.12.2022 07:14 -0,2 C -1,1 C -3,3 C 93 % 1017,1 hPa 0,0 l/m 0 min 0 min 0 W/m 6,4 km/h (2 Bft) 100,00 %
04.12.2022 07:16 -0,2 C -1,1 C -3,3 C 93 % 1017,1 hPa 0,0 l/m 0 min 0 min 0 W/m 6,4 km/h (2 Bft) 97,87 %
04.12.2022 07:18 -0,2 C -1,1 C -3,3 C 93 % 1017,2 hPa 0,0 l/m 0 min 0 min 0 W/m 6,4 km/h (2 Bft) 92,59 %
04.12.2022 07:20 -0,2 C -1,1 C -3,3 C 94 % 1017,2 hPa 0,0 l/m 0 min 0 min 0 W/m 9,7 km/h (2 Bft) 100,00 %
04.12.2022 07:22 -0,2 C -0,6 C -3,3 C 94 % 1017,1 hPa 0,0 l/m 0 min 0 min 0 W/m 3,2 km/h (1 Bft) 97,83 %
04.12.2022 07:24 -0,2 C -0,6 C -3,3 C 94 % 1017,1 hPa 0,0 l/m 0 min 0 min 0 W/m 6,4 km/h (2 Bft) 97,87 %
04.12.2022 07:26 -0,1 C -0,6 C -3,3 C 94 % 1017,2 hPa 0,0 l/m 0 min 0 min 0 W/m 6,4 km/h (2 Bft) 97,87 %
04.12.2022 07:28 -0,1 C -0,6 C -3,3 C 94 % 1017,2 hPa 0,0 l/m 0 min 0 min 0 W/m 6,4 km/h (2 Bft) 48,78 %
04.12.2022 07:30 -0,1 C -0,6 C -3,3 C 94 % 1017,2 hPa 0,0 l/m 0 min 0 min 0 W/m 6,4 km/h (2 Bft) 97,67 %
04.12.2022 07:32 -0,1 C -0,6 C -3,3 C 94 % 1017,2 hPa 0,0 l/m 0 min 0 min 0 W/m 6,4 km/h (2 Bft) 93,62 %
04.12.2022 07:34 -0,1 C -0,6 C -3,3 C 94 % 1017,2 hPa 0,0 l/m 0 min 0 min 0 W/m 3,2 km/h (1 Bft) 97,83 %
04.12.2022 07:36 -0,1 C -0,6 C -3,3 C 94 % 1017,2 hPa 0,0 l/m 0 min 0 min 0 W/m 6,4 km/h (2 Bft) 95,74 %
04.12.2022 07:38 -0,1 C -0,6 C -3,3 C 94 % 1017,3 hPa 0,0 l/m 0 min 0 min 0 W/m 6,4 km/h (2 Bft) 100,00 %
04.12.2022 07:40 -0,1 C -0,6 C -3,3 C 94 % 1017,3 hPa 0,0 l/m 0 min 0 min 0 W/m 6,4 km/h (2 Bft) 100,00 %
04.12.2022 07:42 -0,1 C -0,6 C -3,3 C 94 % 1017,3 hPa 0,0 l/m 0 min 0 min 0 W/m 3,2 km/h (1 Bft) 95,74 %
04.12.2022 07:44 -0,1 C -1,1 C -3,3 C 94 % 1017,2 hPa 0,0 l/m 0 min 0 min 0 W/m 3,2 km/h (1 Bft) 97,87 %
04.12.2022 07:46 -0,1 C -1,1 C -3,3 C 94 % 1017,2 hPa 0,0 l/m 0 min 0 min 0 W/m 3,2 km/h (1 Bft) 97,83 %
04.12.2022 07:48 -0,1 C -1,1 C -3,3 C 94 % 1017,3 hPa 0,0 l/m 0 min 0 min 0 W/m 6,4 km/h (2 Bft) 100,00 %
04.12.2022 07:50 -0,1 C -1,1 C -3,3 C 94 % 1017,3 hPa 0,0 l/m 0 min 0 min 0 W/m 3,2 km/h (1 Bft) 100,00 %
04.12.2022 07:52 -0,1 C -1,1 C -3,3 C 94 % 1017,3 hPa 0,0 l/m 0 min 0 min 0 W/m 3,2 km/h (1 Bft) 97,87 %
04.12.2022 07:54 -0,1 C -1,1 C -3,3 C 94 % 1017,3 hPa 0,0 l/m 0 min 0 min 0 W/m 6,4 km/h (2 Bft) 100,00 %
04.12.2022 07:56 -0,1 C -1,1 C -3,3 C 94 % 1017,3 hPa 0,0 l/m 0 min 0 min 0 W/m 6,4 km/h (2 Bft) 100,00 %
04.12.2022 07:58 -0,2 C -1,1 C -3,3 C 94 % 1017,3 hPa 0,0 l/m 0 min 0 min 0 W/m 6,4 km/h (2 Bft) 100,00 %
04.12.2022 08:00 -0,1 C -0,6 C -3,3 C 94 % 1017,3 hPa 0,0 l/m 0 min 0 min 0 W/m 6,4 km/h (2 Bft) 100,00 %
04.12.2022 08:02 -0,1 C -0,6 C -3,3 C 94 % 1017,3 hPa 0,0 l/m 0 min 0 min 0 W/m 9,7 km/h (2 Bft) 95,74 %
04.12.2022 08:04 -0,1 C -0,6 C -3,3 C 94 % 1017,3 hPa 0,0 l/m 0 min 0 min 0 W/m 6,4 km/h (2 Bft) 93,75 %
04.12.2022 08:06 -0,1 C -0,6 C -3,3 C 94 % 1017,4 hPa 0,0 l/m 0 min 0 min 0 W/m 6,4 km/h (2 Bft) 97,87 %
04.12.2022 08:08 -0,1 C -0,6 C -3,3 C 94 % 1017,4 hPa 0,0 l/m 0 min 0 min 0 W/m 6,4 km/h (2 Bft) 97,87 %
04.12.2022 08:10 -0,1 C -0,6 C -2,8 C 94 % 1017,4 hPa 0,0 l/m 0 min 0 min 0 W/m 6,4 km/h (2 Bft) 97,87 %
04.12.2022 08:12 -0,1 C -0,6 C -3,3 C 94 % 1017,4 hPa 0,0 l/m 0 min 0 min 0 W/m 6,4 km/h (2 Bft) 95,74 %
04.12.2022 08:14 -0,1 C -0,6 C -2,8 C 94 % 1017,4 hPa 0,0 l/m 0 min 0 min 0 W/m 6,4 km/h (2 Bft) 97,87 %
04.12.2022 08:16 -0,1 C -0,6 C -2,8 C 94 % 1017,4 hPa 0,0 l/m 0 min 0 min 0 W/m 6,4 km/h (2 Bft) 97,83 %
04.12.2022 08:18 0,0 C -0,6 C -2,8 C 94 % 1017,3 hPa 0,0 l/m 0 min 0 min 0 W/m 6,4 km/h (2 Bft) 95,74 %
04.12.2022 08:20 0,0 C -0,6 C -2,8 C 94 % 1017,4 hPa 0,0 l/m 0 min 0 min 0 W/m 3,2 km/h (1 Bft) 95,74 %
04.12.2022 08:22 0,1 C -0,6 C -2,8 C 94 % 1017,4 hPa 0,0 l/m 0 min 0 min 0 W/m 6,4 km/h (2 Bft) 97,87 %
04.12.2022 08:24 0,1 C -0,6 C -2,8 C 94 % 1017,4 hPa 0,0 l/m 0 min 0 min 0 W/m 3,2 km/h (1 Bft) 97,87 %
04.12.2022 08:26 0,1 C -0,6 C -2,8 C 94 % 1017,4 hPa 0,0 l/m 0 min 0 min 0 W/m 6,4 km/h (2 Bft) 97,87 %
04.12.2022 08:28 0,1 C 0,0 C -2,8 C 94 % 1017,4 hPa 0,0 l/m 0 min 0 min 0 W/m 6,4 km/h (2 Bft) 95,65 %
04.12.2022 08:30 0,1 C 0,0 C -2,8 C 94 % 1017,4 hPa 0,0 l/m 0 min 0 min 0 W/m 6,4 km/h (2 Bft) 97,87 %
04.12.2022 08:32 0,2 C 0,0 C -2,8 C 94 % 1017,4 hPa 0,0 l/m 0 min 0 min 0 W/m 6,4 km/h (2 Bft) 97,87 %
04.12.2022 08:34 0,2 C 0,0 C -2,8 C 94 % 1017,4 hPa 0,0 l/m 0 min 0 min 0 W/m 6,4 km/h (2 Bft) 97,87 %
04.12.2022 08:36 0,2 C 0,0 C -2,8 C 94 % 1017,4 hPa 0,0 l/m 0 min 0 min 1 W/m 9,7 km/h (2 Bft) 97,87 %
04.12.2022 08:38 0,2 C 0,0 C -2,8 C 94 % 1017,4 hPa 0,0 l/m 0 min 0 min 5 W/m 6,4 km/h (2 Bft) 97,87 %
04.12.2022 08:40 0,2 C 0,0 C -2,8 C 94 % 1017,4 hPa 0,0 l/m 0 min 0 min 5 W/m 6,4 km/h (2 Bft) 97,83 %
04.12.2022 08:42 0,3 C 0,0 C -2,8 C 94 % 1017,5 hPa 0,0 l/m 0 min 0 min 5 W/m 6,4 km/h (2 Bft) 97,87 %
04.12.2022 08:44 0,3 C 0,0 C -2,8 C 94 % 1017,6 hPa 0,0 l/m 0 min 0 min 5 W/m 3,2 km/h (1 Bft) 100,00 %
04.12.2022 08:46 0,3 C 0,0 C -2,8 C 94 % 1017,6 hPa 0,0 l/m 0 min 0 min 5 W/m 9,7 km/h (2 Bft) 100,00 %
04.12.2022 08:48 0,3 C 0,0 C -2,8 C 94 % 1017,6 hPa 0,0 l/m 0 min 0 min 5 W/m 6,4 km/h (2 Bft) 100,00 %
04.12.2022 08:50 0,4 C 0,0 C -2,2 C 94 % 1017,6 hPa 0,0 l/m 0 min 0 min 5 W/m 9,7 km/h (2 Bft) 100,00 %
04.12.2022 08:52 0,4 C 0,0 C -2,2 C 94 % 1017,7 hPa 0,0 l/m 0 min 0 min 5 W/m 9,7 km/h (2 Bft) 97,83 %
04.12.2022 08:54 0,4 C 0,0 C -2,2 C 94 % 1017,7 hPa 0,0 l/m 0 min 0 min 5 W/m 6,4 km/h (2 Bft) 97,87 %
04.12.2022 08:56 0,4 C 0,0 C -2,2 C 94 % 1017,7 hPa 0,0 l/m 0 min 0 min 5 W/m 0,0 km/h (0 Bft) 97,87 %
04.12.2022 08:58 0,4 C 0,0 C -2,2 C 94 % 1017,7 hPa 0,0 l/m 0 min 0 min 6 W/m 0,0 km/h (0 Bft) 97,87 %
04.12.2022 09:00 0,4 C 0,0 C -2,2 C 94 % 1017,7 hPa 0,0 l/m 0 min 0 min 7 W/m 6,4 km/h (2 Bft) 95,74 %
04.12.2022 09:02 0,5 C 0,0 C -2,2 C 94 % 1017,7 hPa 0,0 l/m 0 min 0 min 7 W/m 6,4 km/h (2 Bft) 89,36 %
04.12.2022 09:04 0,5 C 0,0 C -2,2 C 94 % 1017,8 hPa 0,0 l/m 0 min 0 min 8 W/m 9,7 km/h (2 Bft) 97,83 %
04.12.2022 09:06 0,6 C 0,0 C -2,2 C 94 % 1017,7 hPa 0,0 l/m 0 min 0 min 10 W/m 6,4 km/h (2 Bft) 95,74 %
04.12.2022 09:08 0,6 C 0,0 C -2,2 C 94 % 1017,7 hPa 0,0 l/m 0 min 0 min 11 W/m 9,7 km/h (2 Bft) 93,62 %
04.12.2022 09:10 0,6 C 0,6 C -2,2 C 94 % 1017,8 hPa 0,0 l/m 0 min 0 min 11 W/m 9,7 km/h (2 Bft) 93,62 %
04.12.2022 09:12 0,6 C 0,6 C -2,2 C 94 % 1017,8 hPa 0,0 l/m 0 min 0 min 11 W/m 6,4 km/h (2 Bft) 95,74 %
04.12.2022 09:14 0,6 C 0,6 C -2,2 C 94 % 1017,7 hPa 0,0 l/m 0 min 0 min 11 W/m 9,7 km/h (2 Bft) 95,65 %
04.12.2022 09:16 0,6 C 0,6 C -2,2 C 94 % 1017,7 hPa 0,0 l/m 0 min 0 min 9 W/m 9,7 km/h (2 Bft) 95,74 %
04.12.2022 09:18 0,6 C 0,6 C -2,2 C 94 % 1017,7 hPa 0,0 l/m 0 min 0 min 9 W/m 6,4 km/h (2 Bft) 95,74 %
04.12.2022 09:20 0,6 C 0,6 C -2,2 C 93 % 1017,6 hPa 0,0 l/m 0 min 0 min 11 W/m 6,4 km/h (2 Bft) 95,74 %
04.12.2022 09:22 0,6 C 0,6 C -2,2 C 93 % 1017,6 hPa 0,0 l/m 0 min 0 min 11 W/m 3,2 km/h (1 Bft) 93,62 %
04.12.2022 09:24 0,6 C 0,6 C -2,2 C 93 % 1017,7 hPa 0,0 l/m 0 min 0 min 11 W/m 12,9 km/h (3 Bft) 93,62 %
04.12.2022 09:26 0,6 C 0,6 C -2,2 C 93 % 1017,7 hPa 0,0 l/m 0 min 0 min 11 W/m 6,4 km/h (2 Bft) 91,30 %
04.12.2022 09:28 0,6 C 0,6 C -2,2 C 93 % 1017,7 hPa 0,0 l/m 0 min 0 min 11 W/m 6,4 km/h (2 Bft) 93,62 %
04.12.2022 09:30 0,6 C 0,6 C -2,2 C 93 % 1017,7 hPa 0,0 l/m 0 min 0 min 11 W/m 9,7 km/h (2 Bft) 93,62 %
04.12.2022 09:32 0,6 C 0,6 C -2,2 C 93 % 1017,7 hPa 0,0 l/m 0 min 0 min 9 W/m 12,9 km/h (3 Bft) 93,62 %
04.12.2022 09:34 0,6 C 0,6 C -2,2 C 93 % 1017,7 hPa 0,0 l/m 0 min 0 min 10 W/m 6,4 km/h (2 Bft) 95,74 %
04.12.2022 09:36 0,6 C 0,6 C -2,2 C 93 % 1017,7 hPa 0,0 l/m 0 min 0 min 12 W/m 9,7 km/h (2 Bft) 95,74 %
04.12.2022 09:38 0,6 C 0,6 C -2,2 C 93 % 1017,7 hPa 0,0 l/m 0 min 0 min 10 W/m 9,7 km/h (2 Bft) 95,74 %
04.12.2022 09:40 0,6 C 0,6 C -2,2 C 92 % 1017,7 hPa 0,0 l/m 0 min 0 min 8 W/m 6,4 km/h (2 Bft) 97,83 %
04.12.2022 09:42 0,6 C 0,6 C -2,2 C 93 % 1017,7 hPa 0,0 l/m 0 min 0 min 9 W/m 9,7 km/h (2 Bft) 97,87 %
04.12.2022 09:44 0,6 C 0,6 C -2,2 C 92 % 1017,7 hPa 0,0 l/m 0 min 0 min 11 W/m 12,9 km/h (3 Bft) 95,74 %
04.12.2022 09:46 0,6 C 0,6 C -2,2 C 92 % 1017,7 hPa 0,0 l/m 0 min 0 min 11 W/m 6,4 km/h (2 Bft) 97,87 %
04.12.2022 09:48 0,6 C 0,6 C -2,2 C 92 % 1017,8 hPa 0,0 l/m 0 min 0 min 11 W/m 9,7 km/h (2 Bft) 100,00 %
04.12.2022 09:50 0,6 C 0,6 C -2,2 C 92 % 1017,8 hPa 0,0 l/m 0 min 0 min 12 W/m 9,7 km/h (2 Bft) 97,83 %
04.12.2022 09:52 0,6 C 0,6 C -2,2 C 92 % 1017,7 hPa 0,0 l/m 0 min 0 min 12 W/m 6,4 km/h (2 Bft) 97,87 %
04.12.2022 09:54 0,6 C 0,6 C -2,2 C 92 % 1017,7 hPa 0,0 l/m 0 min 0 min 14 W/m 9,7 km/h (2 Bft) 97,87 %
04.12.2022 09:56 0,7 C 0,6 C -2,2 C 92 % 1017,6 hPa 0,0 l/m 0 min 0 min 14 W/m 12,9 km/h (3 Bft) 97,87 %
04.12.2022 09:58 0,7 C 0,6 C -2,2 C 92 % 1017,6 hPa 0,0 l/m 0 min 0 min 16 W/m 6,4 km/h (2 Bft) 97,87 %
04.12.2022 10:00 0,7 C 0,6 C -2,2 C 92 % 1017,6 hPa 0,0 l/m 0 min 0 min 16 W/m 6,4 km/h (2 Bft) 100,00 %
04.12.2022 10:02 0,7 C 0,6 C -2,2 C 92 % 1017,7 hPa 0,0 l/m 0 min 0 min 16 W/m 3,2 km/h (1 Bft) 97,83 %
04.12.2022 10:04 0,7 C 0,6 C -2,2 C 92 % 1017,6 hPa 0,0 l/m 0 min 0 min 19 W/m 6,4 km/h (2 Bft) 100,00 %
04.12.2022 10:06 0,7 C 0,6 C -2,2 C 92 % 1017,7 hPa 0,0 l/m 0 min 0 min 19 W/m 3,2 km/h (1 Bft) 97,87 %
04.12.2022 10:08 0,8 C 0,6 C -2,2 C 92 % 1017,7 hPa 0,0 l/m 0 min 0 min 19 W/m 6,4 km/h (2 Bft) 97,87 %
04.12.2022 10:10 0,8 C 0,6 C -2,2 C 92 % 1017,6 hPa 0,0 l/m 0 min 0 min 19 W/m 3,2 km/h (1 Bft) 93,62 %
04.12.2022 10:12 0,8 C 0,6 C -2,2 C 92 % 1017,7 hPa 0,0 l/m 0 min 0 min 20 W/m 6,4 km/h (2 Bft) 97,87 %
04.12.2022 10:14 0,8 C 0,6 C -2,2 C 91 % 1017,7 hPa 0,0 l/m 0 min 0 min 20 W/m 6,4 km/h (2 Bft) 100,00 %
04.12.2022 10:16 0,8 C 0,6 C -2,2 C 91 % 1017,7 hPa 0,0 l/m 0 min 0 min 21 W/m 3,2 km/h (1 Bft) 100,00 %
04.12.2022 10:18 0,8 C 0,6 C -2,2 C 91 % 1017,7 hPa 0,0 l/m 0 min 0 min 22 W/m 16,1 km/h (3 Bft) 95,74 %
04.12.2022 10:20 0,8 C 0,6 C -2,2 C 91 % 1017,7 hPa 0,0 l/m 0 min 0 min 23 W/m 6,4 km/h (2 Bft) 97,87 %
04.12.2022 10:22 0,8 C 0,6 C -2,2 C 91 % 1017,7 hPa 0,0 l/m 0 min 0 min 25 W/m 6,4 km/h (2 Bft) 100,00 %
04.12.2022 10:24 0,8 C 0,6 C -2,2 C 91 % 1017,7 hPa 0,0 l/m 0 min 0 min 26 W/m 12,9 km/h (3 Bft) 97,87 %
04.12.2022 10:26 0,8 C 0,6 C -2,2 C 91 % 1017,7 hPa 0,0 l/m 0 min 0 min 26 W/m 9,7 km/h (2 Bft) 100,00 %
04.12.2022 10:28 0,8 C 0,6 C -2,2 C 91 % 1017,7 hPa 0,0 l/m 0 min 0 min 28 W/m 6,4 km/h (2 Bft) 95,74 %
04.12.2022 10:30 0,8 C 0,6 C -2,2 C 91 % 1017,7 hPa 0,0 l/m 0 min 0 min 31 W/m 6,4 km/h (2 Bft) 95,74 %
04.12.2022 10:32 0,9 C 0,6 C -2,2 C 91 % 1017,7 hPa 0,0 l/m 0 min 0 min 32 W/m 9,7 km/h (2 Bft) 97,87 %
04.12.2022 10:34 0,9 C 0,6 C -2,2 C 91 % 1017,7 hPa 0,0 l/m 0 min 0 min 35 W/m 9,7 km/h (2 Bft) 95,74 %
04.12.2022 10:36 0,9 C 0,6 C -2,2 C 91 % 1017,7 hPa 0,0 l/m 0 min 0 min 39 W/m 6,4 km/h (2 Bft) 95,74 %
04.12.2022 10:38 0,9 C 1,1 C -2,2 C 91 % 1017,7 hPa 0,0 l/m 0 min 0 min 41 W/m 9,7 km/h (2 Bft) 97,83 %
04.12.2022 10:40 0,9 C 1,1 C -2,2 C 91 % 1017,7 hPa 0,0 l/m 0 min 0 min 44 W/m 9,7 km/h (2 Bft) 97,87 %
04.12.2022 10:42 0,9 C 1,1 C -1,7 C 91 % 1017,7 hPa 0,0 l/m 0 min 0 min 45 W/m 6,4 km/h (2 Bft) 93,62 %
04.12.2022 10:44 0,9 C 1,1 C -1,7 C 91 % 1017,7 hPa 0,0 l/m 0 min 0 min 46 W/m 6,4 km/h (2 Bft) 95,74 %
04.12.2022 10:46 0,9 C 1,1 C -1,7 C 91 % 1017,7 hPa 0,0 l/m 0 min 0 min 46 W/m 9,7 km/h (2 Bft) 97,87 %
04.12.2022 10:48 1,0 C 1,1 C -1,7 C 90 % 1017,7 hPa 0,0 l/m 0 min 0 min 44 W/m 9,7 km/h (2 Bft) 95,74 %
04.12.2022 10:50 1,0 C 1,1 C -1,7 C 90 % 1017,7 hPa 0,0 l/m 0 min 0 min 42 W/m 9,7 km/h (2 Bft) 97,83 %
04.12.2022 10:52 1,0 C 1,1 C -1,7 C 90 % 1017,8 hPa 0,0 l/m 0 min 0 min 40 W/m 6,4 km/h (2 Bft) 97,87 %
04.12.2022 10:54 1,1 C 1,1 C -1,7 C 90 % 1017,8 hPa 0,0 l/m 0 min 0 min 37 W/m 9,7 km/h (2 Bft) 93,62 %
04.12.2022 10:56 1,1 C 1,1 C -1,7 C 90 % 1017,8 hPa 0,0 l/m 0 min 0 min 37 W/m 9,7 km/h (2 Bft) 97,87 %
04.12.2022 10:58 1,1 C 1,1 C -1,7 C 90 % 1017,7 hPa 0,0 l/m 0 min 0 min 35 W/m 9,7 km/h (2 Bft) 95,74 %
04.12.2022 11:00 1,1 C 1,1 C -1,7 C 90 % 1017,7 hPa 0,0 l/m 0 min 0 min 33 W/m 6,4 km/h (2 Bft) 93,62 %
04.12.2022 11:02 1,1 C 1,1 C -1,7 C 90 % 1017,8 hPa 0,0 l/m 0 min 0 min 31 W/m 12,9 km/h (3 Bft) 93,48 %
04.12.2022 11:04 1,1 C 1,1 C -1,7 C 90 % 1017,8 hPa 0,0 l/m 0 min 0 min 30 W/m 9,7 km/h (2 Bft) 95,74 %
04.12.2022 11:06 1,1 C 1,1 C -1,7 C 90 % 1017,8 hPa 0,0 l/m 0 min 0 min 32 W/m 6,4 km/h (2 Bft) 93,62 %
04.12.2022 11:08 1,1 C 1,1 C -1,7 C 90 % 1017,8 hPa 0,0 l/m 0 min 0 min 33 W/m 9,7 km/h (2 Bft) 97,87 %
04.12.2022 11:10 1,1 C 1,1 C -1,7 C 90 % 1017,8 hPa 0,0 l/m 0 min 0 min 36 W/m 9,7 km/h (2 Bft) 93,62 %
04.12.2022 11:12 1,1 C 1,1 C -1,7 C 90 % 1017,8 hPa 0,0 l/m 0 min 0 min 37 W/m 6,4 km/h (2 Bft) 95,74 %
04.12.2022 11:14 1,2 C 1,1 C -1,7 C 90 % 1017,8 hPa 0,0 l/m 0 min 0 min 40 W/m 6,4 km/h (2 Bft) 95,74 %
04.12.2022 11:16 1,2 C 1,1 C -1,7 C 90 % 1017,8 hPa 0,0 l/m 0 min 0 min 40 W/m 12,9 km/h (3 Bft) 98,00 %
04.12.2022 11:18 1,2 C 1,1 C -1,7 C 89 % 1017,7 hPa 0,0 l/m 0 min 0 min 38 W/m 6,4 km/h (2 Bft) 93,48 %
04.12.2022 11:20 1,2 C 1,1 C -1,7 C 89 % 1017,7 hPa 0,0 l/m 0 min 0 min 39 W/m 6,4 km/h (2 Bft) 95,74 %
04.12.2022 11:22 1,2 C 1,1 C -1,7 C 89 % 1017,7 hPa 0,0 l/m 0 min 0 min 39 W/m 6,4 km/h (2 Bft) 95,74 %
04.12.2022 11:24 1,2 C 1,1 C -1,7 C 89 % 1017,6 hPa 0,0 l/m 0 min 0 min 39 W/m 9,7 km/h (2 Bft) 95,74 %
04.12.2022 11:26 1,2 C 1,1 C -1,7 C 89 % 1017,7 hPa 0,0 l/m 0 min 0 min 42 W/m 12,9 km/h (3 Bft) 97,87 %
04.12.2022 11:28 1,2 C 1,1 C -1,7 C 89 % 1017,7 hPa 0,0 l/m 0 min 0 min 42 W/m 6,4 km/h (2 Bft) 97,87 %
04.12.2022 11:30 1,2 C 1,1 C -1,7 C 89 % 1017,6 hPa 0,0 l/m 0 min 0 min 41 W/m 9,7 km/h (2 Bft) 100,00 %
04.12.2022 11:32 1,2 C 1,1 C -1,7 C 89 % 1017,6 hPa 0,0 l/m 0 min 0 min 44 W/m 6,4 km/h (2 Bft) 100,00 %
04.12.2022 11:34 1,2 C 1,1 C -1,7 C 89 % 1017,6 hPa 0,0 l/m 0 min 0 min 46 W/m 9,7 km/h (2 Bft) 100,00 %
04.12.2022 11:36 1,2 C 1,1 C -1,7 C 89 % 1017,7 hPa 0,0 l/m 0 min 0 min 48 W/m 16,1 km/h (3 Bft) 100,00 %
04.12.2022 11:38 1,2 C 1,1 C -1,7 C 89 % 1017,6 hPa 0,0 l/m 0 min 0 min 49 W/m 9,7 km/h (2 Bft) 100,00 %
04.12.2022 11:40 1,2 C 1,1 C -1,7 C 89 % 1017,5 hPa 0,0 l/m 0 min 0 min 48 W/m 12,9 km/h (3 Bft) 100,00 %
04.12.2022 11:42 1,2 C 1,1 C -1,7 C 89 % 1017,6 hPa 0,0 l/m 0 min 0 min 47 W/m 12,9 km/h (3 Bft) 100,00 %
04.12.2022 11:44 1,2 C 1,1 C -1,7 C 89 % 1017,5 hPa 0,0 l/m 0 min 0 min 42 W/m 9,7 km/h (2 Bft) 97,87 %
04.12.2022 11:46 1,2 C 1,1 C -1,7 C 89 % 1017,6 hPa 0,0 l/m 0 min 0 min 41 W/m 9,7 km/h (2 Bft) 97,87 %
04.12.2022 11:48 1,2 C 1,1 C -1,7 C 89 % 1017,5 hPa 0,0 l/m 0 min 0 min 44 W/m 12,9 km/h (3 Bft) 100,00 %
04.12.2022 11:50 1,2 C 1,1 C -1,7 C 89 % 1017,5 hPa 0,0 l/m 0 min 0 min 44 W/m 9,7 km/h (2 Bft) 100,00 %
04.12.2022 11:52 1,3 C 1,1 C -1,7 C 88 % 1017,5 hPa 0,0 l/m 0 min 0 min 41 W/m 9,7 km/h (2 Bft) 100,00 %
04.12.2022 11:54 1,3 C 1,1 C -1,7 C 88 % 1017,6 hPa 0,0 l/m 0 min 0 min 43 W/m 6,4 km/h (2 Bft) 100,00 %
04.12.2022 11:56 1,3 C 1,1 C -1,7 C 88 % 1017,5 hPa 0,0 l/m 0 min 0 min 43 W/m 6,4 km/h (2 Bft) 97,87 %
04.12.2022 11:58 1,3 C 1,1 C -1,7 C 88 % 1017,5 hPa 0,0 l/m 0 min 0 min 47 W/m 9,7 km/h (2 Bft) 97,87 %
04.12.2022 12:00 1,3 C 1,1 C -1,7 C 88 % 1017,4 hPa 0,0 l/m 0 min 0 min 46 W/m 16,1 km/h (3 Bft) 100,00 %
04.12.2022 12:10 1,3 C 1,1 C -1,7 C 88 % 1017,3 hPa 0,0 l/m 0 min 0 min 49 W/m 12,9 km/h (3 Bft) 100,00 %
04.12.2022 12:15 1,3 C 1,1 C -1,7 C 88 % 1017,3 hPa 0,0 l/m 0 min 0 min 50 W/m 12,9 km/h (3 Bft) 99,12 %
04.12.2022 12:20 1,3 C 1,1 C -1,7 C 88 % 1017,2 hPa 0,0 l/m 0 min 0 min 50 W/m 12,9 km/h (3 Bft) 100,00 %
04.12.2022 12:25 1,3 C 1,1 C -1,7 C 88 % 1017,1 hPa 0,0 l/m 0 min 0 min 47 W/m 9,7 km/h (2 Bft) 100,00 %
04.12.2022 12:30 1,4 C 1,1 C -1,7 C 87 % 1017,1 hPa 0,0 l/m 0 min 0 min 48 W/m 9,7 km/h (2 Bft) 97,43 %
04.12.2022 12:32 1,4 C 1,1 C -1,7 C 87 % 1017,1 hPa 0,0 l/m 0 min 0 min 47 W/m 9,7 km/h (2 Bft) 97,83 %
04.12.2022 12:34 1,4 C 1,1 C -1,7 C 87 % 1017,1 hPa 0,0 l/m 0 min 0 min 45 W/m 9,7 km/h (2 Bft) 97,87 %
04.12.2022 12:36 1,4 C 1,1 C -1,7 C 87 % 1017,1 hPa 0,0 l/m 0 min 0 min 41 W/m 12,9 km/h (3 Bft) 95,74 %
04.12.2022 12:38 1,4 C 1,1 C -1,7 C 87 % 1017,0 hPa 0,0 l/m 0 min 0 min 40 W/m 9,7 km/h (2 Bft) 95,74 %
04.12.2022 12:40 1,4 C 1,1 C -1,7 C 87 % 1017,0 hPa 0,0 l/m 0 min 0 min 42 W/m 9,7 km/h (2 Bft) 93,62 %
04.12.2022 12:42 1,4 C 1,1 C -1,7 C 87 % 1016,9 hPa 0,0 l/m 0 min 0 min 43 W/m 6,4 km/h (2 Bft) 95,74 %
04.12.2022 12:44 1,4 C 1,1 C -1,7 C 87 % 1017,0 hPa 0,0 l/m 0 min 0 min 45 W/m 12,9 km/h (3 Bft) 97,83 %
04.12.2022 12:45 1,4 C 1,1 C -1,7 C 87 % 1017,0 hPa 0,0 l/m 0 min 0 min 44 W/m 12,9 km/h (3 Bft) 100,00 %
04.12.2022 12:48 1,4 C 1,1 C -1,7 C 87 % 1016,9 hPa 0,0 l/m 0 min 0 min 41 W/m 6,4 km/h (2 Bft) 97,78 %
04.12.2022 12:50 1,4 C 1,1 C -1,7 C 87 % 1016,9 hPa 0,0 l/m 0 min 0 min 41 W/m 6,4 km/h (2 Bft) 97,87 %
04.12.2022 12:52 1,5 C 1,1 C -1,7 C 87 % 1017,0 hPa 0,0 l/m 0 min 0 min 38 W/m 6,4 km/h (2 Bft) 95,74 %
04.12.2022 12:54 1,5 C 1,1 C -1,7 C 87 % 1017,0 hPa 0,0 l/m 0 min 0 min 39 W/m 9,7 km/h (2 Bft) 100,00 %
04.12.2022 12:56 1,5 C 1,1 C -1,7 C 87 % 1017,0 hPa 0,0 l/m 0 min 0 min 39 W/m 3,2 km/h (1 Bft) 95,74 %
04.12.2022 12:58 1,6 C 1,7 C -1,7 C 87 % 1017,0 hPa 0,0 l/m 0 min 0 min 36 W/m 6,4 km/h (2 Bft) 95,74 %
04.12.2022 13:00 1,6 C 1,7 C -1,7 C 87 % 1017,0 hPa 0,0 l/m 0 min 0 min 37 W/m 6,4 km/h (2 Bft) 93,33 %
04.12.2022 13:02 1,6 C 1,1 C -1,7 C 87 % 1016,9 hPa 0,0 l/m 0 min 0 min 37 W/m 6,4 km/h (2 Bft) 95,92 %
04.12.2022 13:04 1,6 C 1,1 C -1,7 C 87 % 1016,9 hPa 0,0 l/m 0 min 0 min 36 W/m 9,7 km/h (2 Bft) 95,74 %
04.12.2022 13:06 1,6 C 1,1 C -1,7 C 87 % 1016,8 hPa 0,0 l/m 0 min 0 min 38 W/m 9,7 km/h (2 Bft) 95,65 %
04.12.2022 13:08 1,6 C 1,1 C -1,7 C 87 % 1016,8 hPa 0,0 l/m 0 min 0 min 39 W/m 6,4 km/h (2 Bft) 93,62 %
04.12.2022 13:10 1,6 C 1,7 C -1,7 C 87 % 1016,8 hPa 0,0 l/m 0 min 0 min 37 W/m 9,7 km/h (2 Bft) 95,74 %
04.12.2022 13:12 1,6 C 1,7 C -1,7 C 87 % 1016,8 hPa 0,0 l/m 0 min 0 min 35 W/m 6,4 km/h (2 Bft) 93,62 %
04.12.2022 13:14 1,6 C 1,1 C -1,7 C 87 % 1016,8 hPa 0,0 l/m 0 min 0 min 33 W/m 16,1 km/h (3 Bft) 95,74 %
04.12.2022 13:16 1,6 C 1,1 C -1,7 C 87 % 1016,8 hPa 0,0 l/m 0 min 0 min 33 W/m 6,4 km/h (2 Bft) 95,74 %
04.12.2022 13:18 1,6 C 1,1 C -1,7 C 87 % 1016,8 hPa 0,0 l/m 0 min 0 min 32 W/m 6,4 km/h (2 Bft) 95,65 %
04.12.2022 13:20 1,6 C 1,1 C -1,7 C 88 % 1016,8 hPa 0,0 l/m 0 min 0 min 32 W/m 6,4 km/h (2 Bft) 93,62 %
04.12.2022 13:22 1,6 C 1,1 C -1,7 C 88 % 1016,8 hPa 0,0 l/m 0 min 0 min 31 W/m 6,4 km/h (2 Bft) 95,74 %
04.12.2022 13:24 1,6 C 1,1 C -1,7 C 88 % 1016,8 hPa 0,0 l/m 0 min 0 min 31 W/m 12,9 km/h (3 Bft) 97,87 %
04.12.2022 13:26 1,6 C 1,1 C -1,7 C 88 % 1016,8 hPa 0,0 l/m 0 min 0 min 30 W/m 9,7 km/h (2 Bft) 97,87 %
04.12.2022 13:28 1,6 C 1,1 C -1,7 C 88 % 1016,8 hPa 0,0 l/m 0 min 0 min 28 W/m 9,7 km/h (2 Bft) 95,74 %
04.12.2022 13:30 1,6 C 1,1 C -1,7 C 88 % 1016,9 hPa 0,0 l/m 0 min 0 min 30 W/m 9,7 km/h (2 Bft) 97,83 %
04.12.2022 13:32 1,6 C 1,1 C -1,7 C 88 % 1016,9 hPa 0,0 l/m 0 min 0 min 30 W/m 6,4 km/h (2 Bft) 97,92 %
04.12.2022 13:34 1,6 C 1,1 C -1,7 C 88 % 1016,9 hPa 0,0 l/m 0 min 0 min 30 W/m 6,4 km/h (2 Bft) 97,87 %
04.12.2022 13:36 1,6 C 1,1 C -1,7 C 88 % 1016,9 hPa 0,0 l/m 0 min 0 min 28 W/m 9,7 km/h (2 Bft) 97,87 %
04.12.2022 13:38 1,6 C 1,1 C -1,7 C 88 % 1017,0 hPa 0,0 l/m 0 min 0 min 31 W/m 9,7 km/h (2 Bft) 97,87 %
04.12.2022 13:40 1,6 C 1,1 C -1,7 C 88 % 1017,0 hPa 0,0 l/m 0 min 0 min 32 W/m 9,7 km/h (2 Bft) 97,83 %
04.12.2022 13:42 1,6 C 1,1 C -1,7 C 88 % 1017,0 hPa 0,0 l/m 0 min 0 min 31 W/m 9,7 km/h (2 Bft) 100,00 %
04.12.2022 13:44 1,6 C 1,1 C -1,7 C 88 % 1017,0 hPa 0,0 l/m 0 min 0 min 28 W/m 9,7 km/h (2 Bft) 100,00 %
04.12.2022 13:46 1,6 C 1,1 C -1,7 C 88 % 1017,0 hPa 0,0 l/m 0 min 0 min 28 W/m 6,4 km/h (2 Bft) 100,00 %
04.12.2022 13:48 1,5 C 1,1 C -1,7 C 88 % 1017,0 hPa 0,0 l/m 0 min 0 min 28 W/m 9,7 km/h (2 Bft) 95,74 %
04.12.2022 13:50 1,5 C 1,1 C -1,7 C 88 % 1016,9 hPa 0,0 l/m 0 min 0 min 28 W/m 6,4 km/h (2 Bft) 100,00 %
04.12.2022 13:52 1,5 C 1,1 C -1,7 C 88 % 1016,9 hPa 0,0 l/m 0 min 0 min 28 W/m 9,7 km/h (2 Bft) 100,00 %
04.12.2022 13:54 1,6 C 1,1 C -1,7 C 88 % 1016,9 hPa 0,0 l/m 0 min 0 min 28 W/m 12,9 km/h (3 Bft) 100,00 %
04.12.2022 13:56 1,5 C 1,1 C -1,7 C 88 % 1016,9 hPa 0,0 l/m 0 min 0 min 28 W/m 6,4 km/h (2 Bft) 100,00 %
04.12.2022 13:58 1,6 C 1,1 C -1,7 C 88 % 1016,9 hPa 0,0 l/m 0 min 0 min 29 W/m 6,4 km/h (2 Bft) 100,00 %
04.12.2022 14:00 1,6 C 1,1 C -1,7 C 88 % 1016,9 hPa 0,0 l/m 0 min 0 min 29 W/m 9,7 km/h (2 Bft) 97,87 %
04.12.2022 14:02 1,6 C 1,1 C -1,7 C 88 % 1016,9 hPa 0,0 l/m 0 min 0 min 28 W/m 9,7 km/h (2 Bft) 97,87 %
04.12.2022 14:04 1,6 C 1,1 C -1,7 C 88 % 1016,9 hPa 0,0 l/m 0 min 0 min 28 W/m 9,7 km/h (2 Bft) 97,83 %
04.12.2022 14:06 1,6 C 1,1 C -1,7 C 88 % 1016,9 hPa 0,0 l/m 0 min 0 min 26 W/m 9,7 km/h (2 Bft) 97,87 %
04.12.2022 14:08 1,6 C 1,1 C -1,7 C 88 % 1016,9 hPa 0,0 l/m 0 min 0 min 25 W/m 6,4 km/h (2 Bft) 100,00 %
04.12.2022 14:10 1,6 C 1,1 C -1,7 C 88 % 1016,8 hPa 0,0 l/m 0 min 0 min 26 W/m 9,7 km/h (2 Bft) 100,00 %
04.12.2022 14:12 1,6 C 1,1 C -1,7 C 88 % 1016,7 hPa 0,0 l/m 0 min 0 min 26 W/m 6,4 km/h (2 Bft) 100,00 %
04.12.2022 14:14 1,6 C 1,1 C -1,7 C 88 % 1016,7 hPa 0,0 l/m 0 min 0 min 25 W/m 6,4 km/h (2 Bft) 100,00 %
04.12.2022 14:16 1,6 C 1,1 C -1,7 C 88 % 1016,6 hPa 0,0 l/m 0 min 0 min 25 W/m 6,4 km/h (2 Bft) 97,83 %
04.12.2022 14:18 1,6 C 1,1 C -1,7 C 88 % 1016,5 hPa 0,0 l/m 0 min 0 min 26 W/m 6,4 km/h (2 Bft) 100,00 %
04.12.2022 14:20 1,6 C 1,1 C -1,7 C 88 % 1016,5 hPa 0,0 l/m 0 min 0 min 26 W/m 6,4 km/h (2 Bft) 97,87 %
04.12.2022 14:22 1,6 C 1,1 C -1,7 C 88 % 1016,5 hPa 0,0 l/m 0 min 0 min 25 W/m 6,4 km/h (2 Bft) 100,00 %
04.12.2022 14:24 1,6 C 1,1 C -1,7 C 88 % 1016,5 hPa 0,0 l/m 0 min 0 min 25 W/m 9,7 km/h (2 Bft) 100,00 %
04.12.2022 14:26 1,7 C 1,1 C -1,7 C 88 % 1016,5 hPa 0,0 l/m 0 min 0 min 25 W/m 16,1 km/h (3 Bft) 100,00 %
04.12.2022 14:28 1,7 C 1,1 C -1,7 C 88 % 1016,5 hPa 0,0 l/m 0 min 0 min 26 W/m 9,7 km/h (2 Bft) 100,00 %
04.12.2022 14:30 1,7 C 1,1 C -1,7 C 88 % 1016,5 hPa 0,0 l/m 0 min 0 min 25 W/m 6,4 km/h (2 Bft) 100,00 %
04.12.2022 14:32 1,7 C 1,1 C -1,7 C 88 % 1016,5 hPa 0,0 l/m 0 min 0 min 23 W/m 12,9 km/h (3 Bft) 97,87 %
04.12.2022 14:34 1,7 C 1,1 C -1,7 C 88 % 1016,5 hPa 0,0 l/m 0 min 0 min 23 W/m 12,9 km/h (3 Bft) 100,00 %
04.12.2022 14:36 1,7 C 1,1 C -1,7 C 88 % 1016,5 hPa 0,0 l/m 0 min 0 min 21 W/m 9,7 km/h (2 Bft) 100,00 %
04.12.2022 14:38 1,7 C 1,1 C -1,7 C 88 % 1016,5 hPa 0,0 l/m 0 min 0 min 20 W/m 6,4 km/h (2 Bft) 74,47 %
04.12.2022 14:40 1,7 C 1,7 C -1,7 C 88 % 1016,5 hPa 0,0 l/m 0 min 0 min 18 W/m 6,4 km/h (2 Bft) 80,00 %
04.12.2022 14:42 1,7 C 1,7 C -1,7 C 88 % 1016,5 hPa 0,0 l/m 0 min 0 min 18 W/m 9,7 km/h (2 Bft) 100,00 %
04.12.2022 14:44 1,7 C 1,7 C -1,7 C 88 % 1016,5 hPa 0,0 l/m 0 min 0 min 18 W/m 9,7 km/h (2 Bft) 97,87 %
04.12.2022 14:46 1,7 C 1,1 C -1,7 C 88 % 1016,5 hPa 0,0 l/m 0 min 0 min 18 W/m 6,4 km/h (2 Bft) 97,87 %
04.12.2022 14:48 1,7 C 1,1 C -1,7 C 88 % 1016,6 hPa 0,0 l/m 0 min 0 min 18 W/m 6,4 km/h (2 Bft) 97,87 %
04.12.2022 14:50 1,7 C 1,7 C -1,7 C 88 % 1016,6 hPa 0,0 l/m 0 min 0 min 16 W/m 6,4 km/h (2 Bft) 97,87 %
04.12.2022 14:52 1,7 C 1,7 C -1,7 C 88 % 1016,6 hPa 0,0 l/m 0 min 0 min 16 W/m 6,4 km/h (2 Bft) 97,87 %
04.12.2022 14:54 1,8 C 1,1 C -1,7 C 89 % 1016,6 hPa 0,0 l/m 0 min 0 min 16 W/m 6,4 km/h (2 Bft) 93,62 %
04.12.2022 14:56 1,8 C 1,7 C -1,7 C 89 % 1016,5 hPa 0,0 l/m 0 min 0 min 16 W/m 6,4 km/h (2 Bft) 95,74 %
04.12.2022 14:58 1,8 C 1,7 C -1,7 C 89 % 1016,6 hPa 0,0 l/m 0 min 0 min 16 W/m 6,4 km/h (2 Bft) 93,62 %
04.12.2022 15:00 1,8 C 1,7 C -1,7 C 89 % 1016,5 hPa 0,0 l/m 0 min 0 min 18 W/m 3,2 km/h (1 Bft) 95,74 %
04.12.2022 15:02 1,8 C 1,7 C -1,7 C 89 % 1016,5 hPa 0,0 l/m 0 min 0 min 18 W/m 6,4 km/h (2 Bft) 89,36 %
04.12.2022 15:04 1,8 C 1,7 C -1,7 C 89 % 1016,5 hPa 0,0 l/m 0 min 0 min 16 W/m 3,2 km/h (1 Bft) 95,65 %
04.12.2022 15:06 1,8 C 1,7 C -1,7 C 89 % 1016,5 hPa 0,0 l/m 0 min 0 min 16 W/m 3,2 km/h (1 Bft) 93,62 %
04.12.2022 15:08 1,8 C 1,7 C -1,7 C 89 % 1016,4 hPa 0,0 l/m 0 min 0 min 16 W/m 6,4 km/h (2 Bft) 92,86 %
04.12.2022 15:10 1,8 C 1,7 C -1,7 C 89 % 1016,3 hPa 0,0 l/m 0 min 0 min 15 W/m 6,4 km/h (2 Bft) 95,74 %
04.12.2022 15:12 1,8 C 1,7 C -1,7 C 89 % 1016,3 hPa 0,0 l/m 0 min 0 min 14 W/m 3,2 km/h (1 Bft) 95,74 %
04.12.2022 15:14 1,8 C 1,7 C -1,7 C 89 % 1016,3 hPa 0,0 l/m 0 min 0 min 14 W/m 6,4 km/h (2 Bft) 89,36 %
04.12.2022 15:16 1,8 C 1,7 C -1,7 C 89 % 1016,4 hPa 0,0 l/m 0 min 0 min 14 W/m 3,2 km/h (1 Bft) 96,08 %
04.12.2022 15:18 1,8 C 1,7 C -1,7 C 89 % 1016,4 hPa 0,0 l/m 0 min 0 min 14 W/m 6,4 km/h (2 Bft) 97,87 %
04.12.2022 15:20 1,8 C 1,7 C -1,7 C 89 % 1016,3 hPa 0,0 l/m 0 min 0 min 14 W/m 6,4 km/h (2 Bft) 95,74 %
04.12.2022 15:22 1,8 C 1,7 C -1,7 C 89 % 1016,4 hPa 0,0 l/m 0 min 0 min 13 W/m 3,2 km/h (1 Bft) 95,74 %
04.12.2022 15:24 1,8 C 1,7 C -1,7 C 89 % 1016,4 hPa 0,0 l/m 0 min 0 min 12 W/m 6,4 km/h (2 Bft) 95,74 %
04.12.2022 15:26 1,9 C 1,7 C -1,7 C 89 % 1016,4 hPa 0,0 l/m 0 min 0 min 11 W/m 6,4 km/h (2 Bft) 95,74 %
04.12.2022 15:28 1,9 C 1,7 C -1,7 C 89 % 1016,4 hPa 0,0 l/m 0 min 0 min 11 W/m 3,2 km/h (1 Bft) 97,83 %
04.12.2022 15:30 1,9 C 1,7 C -1,7 C 89 % 1016,4 hPa 0,0 l/m 0 min 0 min 11 W/m 6,4 km/h (2 Bft) 45,00 %
04.12.2022 15:32 1,9 C 1,7 C -1,7 C 89 % 1016,4 hPa 0,0 l/m 0 min 0 min 9 W/m 3,2 km/h (1 Bft) 93,33 %
04.12.2022 15:34 1,9 C 1,7 C -1,7 C 89 % 1016,4 hPa 0,0 l/m 0 min 0 min 9 W/m 6,4 km/h (2 Bft) 93,62 %
04.12.2022 15:36 1,9 C 1,7 C -1,7 C 89 % 1016,4 hPa 0,0 l/m 0 min 0 min 9 W/m 9,7 km/h (2 Bft) 95,74 %
04.12.2022 15:38 1,9 C 1,7 C -1,7 C 89 % 1016,4 hPa 0,0 l/m 0 min 0 min 7 W/m 6,4 km/h (2 Bft) 93,62 %
04.12.2022 15:40 1,9 C 1,7 C -1,7 C 89 % 1016,4 hPa 0,0 l/m 0 min 0 min 7 W/m 9,7 km/h (2 Bft) 95,65 %
04.12.2022 15:42 1,9 C 1,7 C -1,7 C 89 % 1016,4 hPa 0,0 l/m 0 min 0 min 7 W/m 6,4 km/h (2 Bft) 95,74 %
04.12.2022 15:44 1,9 C 1,7 C -1,7 C 89 % 1016,4 hPa 0,0 l/m 0 min 0 min 7 W/m 3,2 km/h (1 Bft) 89,36 %
04.12.2022 15:46 1,9 C 1,7 C -1,7 C 89 % 1016,3 hPa 0,0 l/m 0 min 0 min 6 W/m 6,4 km/h (2 Bft) 95,74 %
04.12.2022 15:48 1,9 C 1,1 C -1,7 C 89 % 1016,3 hPa 0,0 l/m 0 min 0 min 5 W/m 6,4 km/h (2 Bft) 95,74 %
04.12.2022 15:50 1,9 C 1,1 C -1,7 C 89 % 1016,3 hPa 0,0 l/m 0 min 0 min 5 W/m 3,2 km/h (1 Bft) 93,62 %
04.12.2022 15:52 1,9 C 1,7 C -1,7 C 89 % 1016,4 hPa 0,0 l/m 0 min 0 min 5 W/m 6,4 km/h (2 Bft) 95,65 %
04.12.2022 15:54 1,9 C 1,1 C -1,7 C 89 % 1016,4 hPa 0,0 l/m 0 min 0 min 1 W/m 6,4 km/h (2 Bft) 97,87 %
04.12.2022 15:56 1,9 C 1,1 C -1,7 C 89 % 1016,4 hPa 0,0 l/m 0 min 0 min 0 W/m 6,4 km/h (2 Bft) 95,74 %
04.12.2022 15:58 1,9 C 1,1 C -1,7 C 90 % 1016,5 hPa 0,0 l/m 0 min 0 min 0 W/m 3,2 km/h (1 Bft) 97,87 %
04.12.2022 16:00 1,9 C 1,1 C -1,7 C 90 % 1016,4 hPa 0,0 l/m 0 min 0 min 0 W/m 3,2 km/h (1 Bft) 91,89 %
04.12.2022 16:02 1,9 C 1,1 C -1,7 C 90 % 1016,4 hPa 0,0 l/m 0 min 0 min 0 W/m 6,4 km/h (2 Bft) 98,00 %
04.12.2022 16:04 1,9 C 1,1 C -1,7 C 90 % 1016,4 hPa 0,0 l/m 0 min 0 min 0 W/m 3,2 km/h (1 Bft) 97,92 %
04.12.2022 16:06 1,9 C 1,1 C -1,7 C 90 % 1016,4 hPa 0,0 l/m 0 min 0 min 0 W/m 0,0 km/h (0 Bft) 97,87 %
04.12.2022 16:08 1,9 C 1,1 C -1,7 C 90 % 1016,4 hPa 0,0 l/m 0 min 0 min 0 W/m 0,0 km/h (0 Bft) 93,48 %
04.12.2022 16:10 1,9 C 1,1 C -1,7 C 90 % 1016,4 hPa 0,0 l/m 0 min 0 min 0 W/m 0,0 km/h (0 Bft) 97,87 %
04.12.2022 16:12 1,9 C 1,1 C -1,7 C 90 % 1016,5 hPa 0,0 l/m 0 min 0 min 0 W/m 0,0 km/h (0 Bft) 97,87 %
04.12.2022 16:14 1,9 C 1,1 C -1,7 C 90 % 1016,5 hPa 0,0 l/m 0 min 0 min 0 W/m 0,0 km/h (0 Bft) 100,00 %
04.12.2022 16:16 1,9 C 1,1 C -1,7 C 90 % 1016,5 hPa 0,0 l/m 0 min 0 min 0 W/m 0,0 km/h (0 Bft) 97,87 %
04.12.2022 16:18 1,9 C 1,1 C -1,1 C 90 % 1016,5 hPa 0,0 l/m 0 min 0 min 0 W/m 0,0 km/h (0 Bft) 97,87 %
04.12.2022 16:20 1,9 C 1,1 C -1,1 C 90 % 1016,5 hPa 0,0 l/m 0 min 0 min 0 W/m 0,0 km/h (0 Bft) 97,83 %
04.12.2022 16:22 1,9 C 1,1 C -1,1 C 90 % 1016,5 hPa 0,0 l/m 0 min 0 min 0 W/m 0,0 km/h (0 Bft) 100,00 %
04.12.2022 16:24 1,9 C 1,1 C -1,7 C 90 % 1016,5 hPa 0,0 l/m 0 min 0 min 0 W/m 3,2 km/h (1 Bft) 95,74 %
04.12.2022 16:26 1,9 C 1,1 C -1,7 C 90 % 1016,5 hPa 0,0 l/m 0 min 0 min 0 W/m 3,2 km/h (1 Bft) 100,00 %
04.12.2022 16:28 1,9 C 1,1 C -1,7 C 90 % 1016,5 hPa 0,0 l/m 0 min 0 min 0 W/m 3,2 km/h (1 Bft) 100,00 %
04.12.2022 16:30 1,9 C 1,1 C -1,1 C 90 % 1016,4 hPa 0,0 l/m 0 min 0 min 0 W/m 0,0 km/h (0 Bft) 100,00 %
04.12.2022 16:32 1,9 C 1,1 C -1,1 C 90 % 1016,3 hPa 0,0 l/m 0 min 0 min 0 W/m 0,0 km/h (0 Bft) 100,00 %
04.12.2022 16:34 2,0 C 1,1 C -1,1 C 90 % 1016,4 hPa 0,0 l/m 0 min 0 min 0 W/m 0,0 km/h (0 Bft) 97,83 %
04.12.2022 16:36 1,9 C 1,1 C -1,1 C 90 % 1016,4 hPa 0,0 l/m 0 min 0 min 0 W/m 0,0 km/h (0 Bft) 97,87 %
04.12.2022 16:38 1,9 C 1,1 C -1,1 C 90 % 1016,5 hPa 0,0 l/m 0 min 0 min 0 W/m 3,2 km/h (1 Bft) 97,87 %
04.12.2022 16:40 1,9 C 1,1 C -1,1 C 90 % 1016,5 hPa 0,0 l/m 0 min 0 min 0 W/m 3,2 km/h (1 Bft) 97,87 %
04.12.2022 16:42 1,9 C 1,1 C -1,1 C 90 % 1016,5 hPa 0,0 l/m 0 min 0 min 0 W/m 6,4 km/h (2 Bft) 97,87 %
04.12.2022 16:44 1,9 C 1,1 C -1,1 C 90 % 1016,5 hPa 0,0 l/m 0 min 0 min 0 W/m 3,2 km/h (1 Bft) 97,83 %
04.12.2022 16:46 1,9 C 1,1 C -1,1 C 90 % 1016,6 hPa 0,0 l/m 0 min 0 min 0 W/m 3,2 km/h (1 Bft) 97,87 %
04.12.2022 16:48 1,9 C 1,1 C -1,1 C 90 % 1016,5 hPa 0,0 l/m 0 min 0 min 0 W/m 3,2 km/h (1 Bft) 97,87 %
04.12.2022 16:50 2,0 C 1,1 C -1,1 C 90 % 1016,5 hPa 0,0 l/m 0 min 0 min 0 W/m 3,2 km/h (1 Bft) 97,87 %
04.12.2022 16:52 2,0 C 1,7 C -1,1 C 91 % 1016,5 hPa 0,0 l/m 0 min 0 min 0 W/m 3,2 km/h (1 Bft) 93,62 %
04.12.2022 16:54 2,0 C 1,7 C -1,1 C 91 % 1016,5 hPa 0,0 l/m 0 min 0 min 0 W/m 3,2 km/h (1 Bft) 97,87 %
04.12.2022 16:56 2,0 C 1,7 C -1,1 C 91 % 1016,6 hPa 0,0 l/m 0 min 0 min 0 W/m 3,2 km/h (1 Bft) 97,83 %
04.12.2022 16:58 2,0 C 1,7 C -1,1 C 91 % 1016,5 hPa 0,0 l/m 0 min 0 min 0 W/m 3,2 km/h (1 Bft) 97,87 %
04.12.2022 17:00 2,0 C 1,7 C -1,1 C 91 % 1016,6 hPa 0,0 l/m 0 min 0 min 0 W/m 3,2 km/h (1 Bft) 97,87 %
04.12.2022 17:02 2,1 C 1,7 C -1,1 C 91 % 1016,6 hPa 0,0 l/m 0 min 0 min 0 W/m 3,2 km/h (1 Bft) 95,74 %
04.12.2022 17:04 2,1 C 1,7 C -1,1 C 91 % 1016,5 hPa 0,0 l/m 0 min 0 min 0 W/m 3,2 km/h (1 Bft) 95,74 %
04.12.2022 17:06 2,1 C 1,7 C -1,1 C 91 % 1016,6 hPa 0,0 l/m 0 min 0 min 0 W/m 3,2 km/h (1 Bft) 97,87 %
04.12.2022 17:08 2,1 C 1,7 C -1,1 C 91 % 1016,6 hPa 0,0 l/m 0 min 0 min 0 W/m 3,2 km/h (1 Bft) 100,00 %
04.12.2022 17:10 2,1 C 1,7 C -1,1 C 91 % 1016,5 hPa 0,0 l/m 0 min 0 min 0 W/m 0,0 km/h (0 Bft) 97,87 %
04.12.2022 17:12 2,1 C 1,7 C -1,1 C 91 % 1016,5 hPa 0,0 l/m 0 min 0 min 0 W/m 0,0 km/h (0 Bft) 100,00 %
04.12.2022 17:14 2,1 C 1,7 C -1,1 C 91 % 1016,5 hPa 0,0 l/m 0 min 0 min 0 W/m 3,2 km/h (1 Bft) 100,00 %
04.12.2022 17:16 2,1 C 1,7 C -1,1 C 91 % 1016,5 hPa 0,0 l/m 0 min 0 min 0 W/m 3,2 km/h (1 Bft) 100,00 %
04.12.2022 17:18 2,1 C 1,7 C -1,1 C 91 % 1016,5 hPa 0,0 l/m 0 min 0 min 0 W/m 3,2 km/h (1 Bft) 100,00 %
04.12.2022 17:20 2,2 C 1,7 C -1,1 C 92 % 1016,5 hPa 0,0 l/m 0 min 0 min 0 W/m 3,2 km/h (1 Bft) 100,00 %
04.12.2022 17:22 2,2 C 1,7 C -1,1 C 92 % 1016,4 hPa 0,0 l/m 0 min 0 min 0 W/m 6,4 km/h (2 Bft) 100,00 %
04.12.2022 17:24 2,2 C 1,7 C -1,1 C 92 % 1016,4 hPa 0,0 l/m 0 min 0 min 0 W/m 3,2 km/h (1 Bft) 97,87 %
04.12.2022 17:26 2,2 C 1,7 C -1,1 C 92 % 1016,5 hPa 0,0 l/m 0 min 0 min 0 W/m 3,2 km/h (1 Bft) 100,00 %
04.12.2022 17:28 2,2 C 1,7 C -1,1 C 92 % 1016,4 hPa 0,0 l/m 0 min 0 min 0 W/m 6,4 km/h (2 Bft) 100,00 %
04.12.2022 17:30 2,2 C 1,7 C -1,1 C 92 % 1016,4 hPa 0,0 l/m 0 min 0 min 0 W/m 3,2 km/h (1 Bft) 97,87 %
04.12.2022 17:32 2,2 C 1,7 C -1,1 C 92 % 1016,4 hPa 0,0 l/m 0 min 0 min 0 W/m 6,4 km/h (2 Bft) 100,00 %
04.12.2022 17:34 2,2 C 1,7 C -1,1 C 92 % 1016,3 hPa 0,0 l/m 0 min 0 min 0 W/m 6,4 km/h (2 Bft) 100,00 %
04.12.2022 17:36 2,2 C 1,7 C -1,1 C 92 % 1016,4 hPa 0,0 l/m 0 min 0 min 0 W/m 3,2 km/h (1 Bft) 95,74 %
04.12.2022 17:38 2,2 C 1,7 C -1,1 C 92 % 1016,4 hPa 0,0 l/m 0 min 0 min 0 W/m 6,4 km/h (2 Bft) 97,87 %
04.12.2022 17:40 2,2 C 1,7 C -1,1 C 92 % 1016,4 hPa 0,0 l/m 0 min 0 min 0 W/m 6,4 km/h (2 Bft) 97,87 %
04.12.2022 17:42 2,2 C 1,7 C -1,1 C 92 % 1016,4 hPa 0,0 l/m 0 min 0 min 0 W/m 6,4 km/h (2 Bft) 97,87 %
04.12.2022 17:44 2,2 C 1,7 C -1,1 C 92 % 1016,4 hPa 0,0 l/m 0 min 0 min 0 W/m 3,2 km/h (1 Bft) 100,00 %
04.12.2022 17:46 2,2 C 1,7 C -1,1 C 92 % 1016,4 hPa 0,0 l/m 0 min 0 min 0 W/m 3,2 km/h (1 Bft) 97,87 %
04.12.2022 17:48 2,2 C 1,7 C -1,1 C 92 % 1016,4 hPa 0,0 l/m 0 min 0 min 0 W/m 6,4 km/h (2 Bft) 97,87 %
04.12.2022 17:50 2,2 C 1,7 C -1,1 C 92 % 1016,5 hPa 0,0 l/m 0 min 0 min 0 W/m 6,4 km/h (2 Bft) 100,00 %
04.12.2022 17:52 2,2 C 1,7 C -1,1 C 92 % 1016,5 hPa 0,0 l/m 0 min 0 min 0 W/m 6,4 km/h (2 Bft) 97,87 %
04.12.2022 17:54 2,2 C 1,7 C -1,1 C 92 % 1016,5 hPa 0,0 l/m 0 min 0 min 0 W/m 6,4 km/h (2 Bft) 100,00 %
04.12.2022 17:56 2,2 C 1,7 C -1,1 C 92 % 1016,5 hPa 0,0 l/m 0 min 0 min 0 W/m 3,2 km/h (1 Bft) 95,65 %
04.12.2022 17:58 2,2 C 1,7 C -1,1 C 92 % 1016,5 hPa 0,0 l/m 0 min 0 min 0 W/m 3,2 km/h (1 Bft) 95,74 %
04.12.2022 18:00 2,3 C 1,7 C -1,1 C 92 % 1016,5 hPa 0,0 l/m 0 min 0 min 0 W/m 3,2 km/h (1 Bft) 95,74 %
04.12.2022 18:02 2,3 C 1,7 C -1,1 C 92 % 1016,5 hPa 0,0 l/m 0 min 0 min 0 W/m 6,4 km/h (2 Bft) 93,62 %
04.12.2022 18:04 2,3 C 1,7 C -1,1 C 92 % 1016,6 hPa 0,0 l/m 0 min 0 min 0 W/m 6,4 km/h (2 Bft) 95,74 %
04.12.2022 18:08 2,3 C 1,7 C -1,1 C 92 % 1016,7 hPa 0,0 l/m 0 min 0 min 0 W/m 6,4 km/h (2 Bft) 94,62 %
04.12.2022 18:10 2,3 C 1,7 C -1,1 C 92 % 1016,7 hPa 0,0 l/m 0 min 0 min 0 W/m 6,4 km/h (2 Bft) 95,74 %
04.12.2022 18:12 2,3 C 1,7 C -1,1 C 92 % 1016,7 hPa 0,0 l/m 0 min 0 min 0 W/m 9,7 km/h (2 Bft) 95,74 %
04.12.2022 18:14 2,3 C 1,7 C -1,1 C 92 % 1016,8 hPa 0,0 l/m 0 min 0 min 0 W/m 6,4 km/h (2 Bft) 95,74 %
04.12.2022 18:16 2,3 C 1,7 C -1,1 C 92 % 1016,8 hPa 0,0 l/m 0 min 0 min 0 W/m 3,2 km/h (1 Bft) 93,62 %
04.12.2022 18:18 2,3 C 1,7 C -1,1 C 92 % 1016,9 hPa 0,0 l/m 0 min 0 min 0 W/m 6,4 km/h (2 Bft) 95,65 %
04.12.2022 18:20 2,3 C 1,7 C -1,1 C 92 % 1016,9 hPa 0,0 l/m 0 min 0 min 0 W/m 6,4 km/h (2 Bft) 93,62 %
04.12.2022 18:22 2,3 C 1,7 C -1,1 C 92 % 1016,9 hPa 0,0 l/m 0 min 0 min 0 W/m 6,4 km/h (2 Bft) 95,74 %
04.12.2022 18:24 2,3 C 1,7 C -1,1 C 92 % 1016,9 hPa 0,0 l/m 0 min 0 min 0 W/m 3,2 km/h (1 Bft) 93,62 %
04.12.2022 18:26 2,3 C 1,7 C -1,1 C 92 % 1016,9 hPa 0,0 l/m 0 min 0 min 0 W/m 6,4 km/h (2 Bft) 91,49 %
04.12.2022 18:28 2,3 C 1,7 C -1,1 C 92 % 1016,9 hPa 0,0 l/m 0 min 0 min 0 W/m 6,4 km/h (2 Bft) 93,62 %
04.12.2022 18:30 2,3 C 1,7 C -1,1 C 92 % 1016,8 hPa 0,0 l/m 0 min 0 min 0 W/m 6,4 km/h (2 Bft) 89,36 %
04.12.2022 18:32 2,3 C 1,7 C -1,1 C 92 % 1016,8 hPa 0,0 l/m 0 min 0 min 0 W/m 6,4 km/h (2 Bft) 93,48 %
04.12.2022 18:34 2,3 C 1,7 C -1,1 C 92 % 1016,8 hPa 0,0 l/m 0 min 0 min 0 W/m 3,2 km/h (1 Bft) 93,62 %
04.12.2022 18:36 2,3 C 1,7 C -1,1 C 92 % 1016,8 hPa 0,0 l/m 0 min 0 min 0 W/m 3,2 km/h (1 Bft) 93,18 %
04.12.2022 18:38 2,3 C 1,7 C -1,1 C 92 % 1016,8 hPa 0,0 l/m 0 min 0 min 0 W/m 3,2 km/h (1 Bft) 94,00 %
04.12.2022 18:40 2,3 C 1,7 C -1,1 C 93 % 1016,8 hPa 0,0 l/m 0 min 0 min 0 W/m 3,2 km/h (1 Bft) 95,74 %
04.12.2022 18:42 2,3 C 1,7 C -1,1 C 93 % 1016,7 hPa 0,0 l/m 0 min 0 min 0 W/m 3,2 km/h (1 Bft) 93,48 %
04.12.2022 18:44 2,3 C 1,7 C -1,1 C 93 % 1016,7 hPa 0,0 l/m 0 min 0 min 0 W/m 3,2 km/h (1 Bft) 95,74 %
04.12.2022 18:46 2,3 C 1,7 C -1,1 C 93 % 1016,7 hPa 0,0 l/m 0 min 0 min 0 W/m 3,2 km/h (1 Bft) 97,87 %
04.12.2022 18:48 2,3 C 1,7 C -1,1 C 92 % 1016,8 hPa 0,0 l/m 0 min 0 min 0 W/m 3,2 km/h (1 Bft) 97,87 %
04.12.2022 18:50 2,3 C 1,7 C -1,1 C 93 % 1016,8 hPa 0,0 l/m 0 min 0 min 0 W/m 6,4 km/h (2 Bft) 91,49 %
04.12.2022 18:52 2,4 C 1,7 C -1,1 C 93 % 1016,8 hPa 0,0 l/m 0 min 0 min 0 W/m 3,2 km/h (1 Bft) 97,87 %
04.12.2022 18:54 2,4 C 1,7 C -1,1 C 93 % 1016,8 hPa 0,0 l/m 0 min 0 min 0 W/m 3,2 km/h (1 Bft) 97,83 %
04.12.2022 18:56 2,4 C 1,7 C -1,1 C 93 % 1016,8 hPa 0,0 l/m 0 min 0 min 0 W/m 6,4 km/h (2 Bft) 97,87 %
04.12.2022 18:58 2,4 C 1,7 C -1,1 C 93 % 1016,7 hPa 0,0 l/m 0 min 0 min 0 W/m 3,2 km/h (1 Bft) 51,16 %
04.12.2022 19:00 2,4 C 1,7 C -1,1 C 93 % 1016,7 hPa 0,0 l/m 0 min 0 min 0 W/m 9,7 km/h (2 Bft) 97,87 %
04.12.2022 19:02 2,4 C 1,7 C -1,1 C 93 % 1016,7 hPa 0,0 l/m 0 min 0 min 0 W/m 3,2 km/h (1 Bft) 100,00 %
04.12.2022 19:04 2,4 C 1,7 C -1,1 C 93 % 1016,7 hPa 0,0 l/m 0 min 0 min 0 W/m 3,2 km/h (1 Bft) 100,00 %
04.12.2022 19:06 2,4 C 1,7 C -1,1 C 93 % 1016,7 hPa 0,0 l/m 0 min 0 min 0 W/m 3,2 km/h (1 Bft) 100,00 %
04.12.2022 19:08 2,4 C 1,7 C -1,1 C 93 % 1016,7 hPa 0,0 l/m 0 min 0 min 0 W/m 3,2 km/h (1 Bft) 100,00 %
04.12.2022 19:10 2,4 C 1,7 C -1,1 C 93 % 1016,7 hPa 0,0 l/m 0 min 0 min 0 W/m 3,2 km/h (1 Bft) 100,00 %
04.12.2022 19:12 2,4 C 1,7 C -1,1 C 93 % 1016,7 hPa 0,0 l/m 0 min 0 min 0 W/m 3,2 km/h (1 Bft) 100,00 %
04.12.2022 19:14 2,4 C 1,7 C -1,1 C 93 % 1016,6 hPa 0,0 l/m 0 min 0 min 0 W/m 3,2 km/h (1 Bft) 93,62 %
04.12.2022 19:16 2,4 C 1,7 C -1,1 C 93 % 1016,7 hPa 0,0 l/m 0 min 0 min 0 W/m 3,2 km/h (1 Bft) 100,00 %
04.12.2022 19:18 2,4 C 1,7 C -1,1 C 93 % 1016,7 hPa 0,0 l/m 0 min 0 min 0 W/m 6,4 km/h (2 Bft) 100,00 %
04.12.2022 19:20 2,4 C 1,7 C -1,1 C 93 % 1016,6 hPa 0,0 l/m 0 min 0 min 0 W/m 6,4 km/h (2 Bft) 100,00 %
04.12.2022 19:22 2,4 C 1,7 C -1,1 C 93 % 1016,6 hPa 0,0 l/m 0 min 0 min 0 W/m 6,4 km/h (2 Bft) 100,00 %
04.12.2022 19:24 2,4 C 1,7 C -1,1 C 93 % 1016,7 hPa 0,0 l/m 0 min 0 min 0 W/m 6,4 km/h (2 Bft) 97,87 %
04.12.2022 19:26 2,4 C 1,7 C -1,1 C 93 % 1016,7 hPa 0,0 l/m 0 min 0 min 0 W/m 9,7 km/h (2 Bft) 100,00 %
04.12.2022 19:28 2,4 C 1,7 C -1,1 C 93 % 1016,7 hPa 0,0 l/m 0 min 0 min 0 W/m 9,7 km/h (2 Bft) 97,87 %
04.12.2022 19:30 2,4 C 1,7 C -1,1 C 93 % 1016,7 hPa 0,0 l/m 0 min 0 min 0 W/m 6,4 km/h (2 Bft) 100,00 %
04.12.2022 19:32 2,4 C 1,7 C -1,1 C 93 % 1016,6 hPa 0,0 l/m 0 min 0 min 0 W/m 3,2 km/h (1 Bft) 100,00 %
04.12.2022 19:34 2,4 C 1,7 C -1,1 C 93 % 1016,7 hPa 0,0 l/m 0 min 0 min 0 W/m 6,4 km/h (2 Bft) 100,00 %
04.12.2022 19:36 2,4 C 1,7 C -1,1 C 93 % 1016,6 hPa 0,0 l/m 0 min 0 min 0 W/m 6,4 km/h (2 Bft) 97,87 %
04.12.2022 19:38 2,4 C 1,7 C -1,1 C 93 % 1016,6 hPa 0,0 l/m 0 min 0 min 0 W/m 6,4 km/h (2 Bft) 100,00 %
04.12.2022 19:40 2,4 C 1,7 C -1,1 C 93 % 1016,6 hPa 0,0 l/m 0 min 0 min 0 W/m 6,4 km/h (2 Bft) 100,00 %
04.12.2022 19:42 2,4 C 1,7 C -1,1 C 93 % 1016,6 hPa 0,0 l/m 0 min 0 min 0 W/m 6,4 km/h (2 Bft) 97,83 %
04.12.2022 19:44 2,4 C 1,7 C -1,1 C 93 % 1016,6 hPa 0,0 l/m 0 min 0 min 0 W/m 6,4 km/h (2 Bft) 100,00 %
04.12.2022 19:46 2,4 C 1,7 C -1,1 C 93 % 1016,6 hPa 0,0 l/m 0 min 0 min 0 W/m 6,4 km/h (2 Bft) 97,87 %
04.12.2022 19:48 2,4 C 1,7 C -1,1 C 93 % 1016,6 hPa 0,0 l/m 0 min 0 min 0 W/m 6,4 km/h (2 Bft) 97,87 %
04.12.2022 19:50 2,4 C 1,7 C -1,1 C 93 % 1016,7 hPa 0,0 l/m 0 min 0 min 0 W/m 6,4 km/h (2 Bft) 100,00 %
04.12.2022 19:52 2,4 C 1,7 C -1,1 C 93 % 1016,6 hPa 0,0 l/m 0 min 0 min 0 W/m 3,2 km/h (1 Bft) 97,87 %
04.12.2022 19:54 2,4 C 1,7 C -1,1 C 93 % 1016,6 hPa 0,0 l/m 0 min 0 min 0 W/m 6,4 km/h (2 Bft) 100,00 %
04.12.2022 19:56 2,4 C 1,7 C -1,1 C 93 % 1016,6 hPa 0,0 l/m 0 min 0 min 0 W/m 3,2 km/h (1 Bft) 100,00 %
04.12.2022 19:58 2,4 C 1,7 C -0,6 C 93 % 1016,6 hPa 0,0 l/m 0 min 0 min 0 W/m 6,4 km/h (2 Bft) 100,00 %
04.12.2022 20:00 2,4 C 1,7 C -0,6 C 93 % 1016,6 hPa 0,0 l/m 0 min 0 min 0 W/m 3,2 km/h (1 Bft) 97,87 %
04.12.2022 20:02 2,4 C 1,7 C -1,1 C 93 % 1016,7 hPa 0,0 l/m 0 min 0 min 0 W/m 6,4 km/h (2 Bft) 100,00 %
04.12.2022 20:04 2,4 C 1,7 C -0,6 C 93 % 1016,7 hPa 0,0 l/m 0 min 0 min 0 W/m 9,7 km/h (2 Bft) 100,00 %
04.12.2022 20:06 2,4 C 1,7 C -1,1 C 93 % 1016,7 hPa 0,0 l/m 0 min 0 min 0 W/m 3,2 km/h (1 Bft) 100,00 %
04.12.2022 20:08 2,4 C 1,7 C -1,1 C 93 % 1016,7 hPa 0,0 l/m 0 min 0 min 0 W/m 6,4 km/h (2 Bft) 97,87 %
04.12.2022 20:10 2,4 C 1,7 C -1,1 C 93 % 1016,6 hPa 0,0 l/m 0 min 0 min 0 W/m 16,1 km/h (3 Bft) 97,87 %
04.12.2022 20:12 2,4 C 1,7 C -0,6 C 93 % 1016,6 hPa 0,0 l/m 0 min 0 min 0 W/m 9,7 km/h (2 Bft) 97,87 %
04.12.2022 20:14 2,4 C 1,7 C -0,6 C 93 % 1016,6 hPa 0,0 l/m 0 min 0 min 0 W/m 12,9 km/h (3 Bft) 100,00 %
04.12.2022 20:16 2,4 C 2,2 C -0,6 C 93 % 1016,6 hPa 0,0 l/m 0 min 0 min 0 W/m 6,4 km/h (2 Bft) 100,00 %
04.12.2022 20:18 2,4 C 2,2 C -0,6 C 93 % 1016,6 hPa 0,0 l/m 0 min 0 min 0 W/m 3,2 km/h (1 Bft) 95,65 %
04.12.2022 20:20 2,4 C 2,2 C -0,6 C 93 % 1016,6 hPa 0,0 l/m 0 min 0 min 0 W/m 6,4 km/h (2 Bft) 95,74 %
04.12.2022 20:22 2,4 C 2,2 C -0,6 C 93 % 1016,6 hPa 0,0 l/m 0 min 0 min 0 W/m 6,4 km/h (2 Bft) 97,87 %
04.12.2022 20:24 2,4 C 2,2 C -0,6 C 93 % 1016,6 hPa 0,0 l/m 0 min 0 min 0 W/m 6,4 km/h (2 Bft) 97,87 %
04.12.2022 20:26 2,4 C 1,7 C -0,6 C 93 % 1016,7 hPa 0,0 l/m 0 min 0 min 0 W/m 9,7 km/h (2 Bft) 95,74 %
04.12.2022 20:28 2,4 C 2,2 C -0,6 C 93 % 1016,7 hPa 0,0 l/m 0 min 0 min 0 W/m 6,4 km/h (2 Bft) 95,74 %
04.12.2022 20:30 2,4 C 1,7 C -0,6 C 93 % 1016,7 hPa 0,0 l/m 0 min 0 min 0 W/m 9,7 km/h (2 Bft) 95,65 %
04.12.2022 20:32 2,4 C 2,2 C -0,6 C 93 % 1016,7 hPa 0,0 l/m 0 min 0 min 0 W/m 12,9 km/h (3 Bft) 95,74 %
04.12.2022 20:34 2,4 C 2,2 C -0,6 C 93 % 1016,7 hPa 0,0 l/m 0 min 0 min 0 W/m 16,1 km/h (3 Bft) 95,74 %
04.12.2022 20:36 2,4 C 2,2 C -0,6 C 93 % 1016,8 hPa 0,0 l/m 0 min 0 min 0 W/m 9,7 km/h (2 Bft) 93,62 %
04.12.2022 20:38 2,4 C 2,2 C -0,6 C 93 % 1016,8 hPa 0,0 l/m 0 min 0 min 0 W/m 6,4 km/h (2 Bft) 93,62 %
04.12.2022 20:40 2,4 C 2,2 C -0,6 C 93 % 1016,8 hPa 0,0 l/m 0 min 0 min 0 W/m 3,2 km/h (1 Bft) 95,74 %
04.12.2022 20:42 2,4 C 2,2 C -0,6 C 93 % 1016,8 hPa 0,0 l/m 0 min 0 min 0 W/m 6,4 km/h (2 Bft) 95,65 %
04.12.2022 20:44 2,4 C 1,7 C -0,6 C 93 % 1016,8 hPa 0,0 l/m 0 min 0 min 0 W/m 9,7 km/h (2 Bft) 93,62 %
04.12.2022 20:46 2,4 C 1,7 C -0,6 C 93 % 1016,8 hPa 0,0 l/m 0 min 0 min 0 W/m 6,4 km/h (2 Bft) 93,62 %
04.12.2022 20:48 2,4 C 1,7 C -0,6 C 93 % 1016,7 hPa 0,0 l/m 0 min 0 min 0 W/m 9,7 km/h (2 Bft) 93,62 %
04.12.2022 20:50 2,4 C 2,2 C -0,6 C 93 % 1016,8 hPa 0,0 l/m 0 min 0 min 0 W/m 6,4 km/h (2 Bft) 95,74 %
04.12.2022 20:52 2,4 C 1,7 C -0,6 C 93 % 1016,8 hPa 0,0 l/m 0 min 0 min 0 W/m 6,4 km/h (2 Bft) 95,74 %
04.12.2022 20:54 2,4 C 1,7 C -1,1 C 93 % 1016,8 hPa 0,0 l/m 0 min 0 min 0 W/m 9,7 km/h (2 Bft) 95,65 %
04.12.2022 20:56 2,4 C 1,7 C -0,6 C 93 % 1016,8 hPa 0,0 l/m 0 min 0 min 0 W/m 6,4 km/h (2 Bft) 93,62 %
04.12.2022 20:58 2,4 C 1,7 C -1,1 C 93 % 1016,9 hPa 0,0 l/m 0 min 0 min 0 W/m 6,4 km/h (2 Bft) 95,74 %
04.12.2022 21:00 2,4 C 1,7 C -1,1 C 93 % 1016,8 hPa 0,0 l/m 0 min 0 min 0 W/m 9,7 km/h (2 Bft) 95,74 %
04.12.2022 21:02 2,4 C 1,7 C -1,1 C 93 % 1016,9 hPa 0,0 l/m 0 min 0 min 0 W/m 16,1 km/h (3 Bft) 93,62 %
04.12.2022 21:04 2,4 C 1,7 C -1,1 C 93 % 1016,9 hPa 0,0 l/m 0 min 0 min 0 W/m 6,4 km/h (2 Bft) 95,74 %
04.12.2022 21:06 2,4 C 1,7 C -1,1 C 93 % 1016,9 hPa 0,0 l/m 0 min 0 min 0 W/m 6,4 km/h (2 Bft) 95,65 %
04.12.2022 21:08 2,4 C 1,7 C -1,1 C 93 % 1016,9 hPa 0,0 l/m 0 min 0 min 0 W/m 9,7 km/h (2 Bft) 93,62 %
04.12.2022 21:10 2,4 C 1,7 C -1,1 C 93 % 1016,9 hPa 0,0 l/m 0 min 0 min 0 W/m 9,7 km/h (2 Bft) 95,74 %
04.12.2022 21:12 2,4 C 1,7 C -1,1 C 93 % 1016,9 hPa 0,0 l/m 0 min 0 min 0 W/m 6,4 km/h (2 Bft) 97,87 %
04.12.2022 21:14 2,4 C 1,7 C -0,6 C 93 % 1016,9 hPa 0,0 l/m 0 min 0 min 0 W/m 6,4 km/h (2 Bft) 97,87 %
04.12.2022 21:16 2,4 C 1,7 C -1,1 C 93 % 1016,9 hPa 0,0 l/m 0 min 0 min 0 W/m 9,7 km/h (2 Bft) 97,83 %
04.12.2022 21:18 2,4 C 1,7 C -1,1 C 93 % 1016,9 hPa 0,0 l/m 0 min 0 min 0 W/m 12,9 km/h (3 Bft) 95,74 %
04.12.2022 21:20 2,4 C 1,7 C -1,1 C 93 % 1016,9 hPa 0,0 l/m 0 min 0 min 0 W/m 3,2 km/h (1 Bft) 97,87 %
04.12.2022 21:22 2,4 C 1,7 C -1,1 C 93 % 1016,9 hPa 0,0 l/m 0 min 0 min 0 W/m 6,4 km/h (2 Bft) 95,74 %
04.12.2022 21:24 2,4 C 1,7 C -1,1 C 93 % 1016,9 hPa 0,0 l/m 0 min 0 min 0 W/m 9,7 km/h (2 Bft) 97,87 %
04.12.2022 21:26 2,4 C 1,7 C -1,1 C 93 % 1016,9 hPa 0,0 l/m 0 min 0 min 0 W/m 9,7 km/h (2 Bft) 95,74 %
04.12.2022 21:28 2,4 C 1,7 C -0,6 C 93 % 1016,9 hPa 0,0 l/m 0 min 0 min 0 W/m 6,4 km/h (2 Bft) 95,74 %
04.12.2022 21:30 2,4 C 1,7 C -1,1 C 93 % 1017,0 hPa 0,0 l/m 0 min 0 min 0 W/m 6,4 km/h (2 Bft) 97,83 %
04.12.2022 21:32 2,4 C 1,7 C -1,1 C 93 % 1017,0 hPa 0,0 l/m 0 min 0 min 0 W/m 6,4 km/h (2 Bft) 97,87 %
04.12.2022 21:34 2,4 C 1,7 C -1,1 C 93 % 1017,0 hPa 0,0 l/m 0 min 0 min 0 W/m 9,7 km/h (2 Bft) 97,87 %
04.12.2022 21:36 2,4 C 1,7 C -1,1 C 93 % 1016,9 hPa 0,0 l/m 0 min 0 min 0 W/m 6,4 km/h (2 Bft) 95,74 %
04.12.2022 21:38 2,4 C 1,7 C -1,1 C 93 % 1016,9 hPa 0,0 l/m 0 min 0 min 0 W/m 6,4 km/h (2 Bft) 97,87 %
04.12.2022 21:40 2,4 C 1,7 C -0,6 C 93 % 1016,9 hPa 0,0 l/m 0 min 0 min 0 W/m 9,7 km/h (2 Bft) 97,87 %
04.12.2022 21:42 2,4 C 1,7 C -1,1 C 93 % 1016,8 hPa 0,0 l/m 0 min 0 min 0 W/m 9,7 km/h (2 Bft) 97,83 %
04.12.2022 21:44 2,4 C 1,7 C -1,1 C 93 % 1016,9 hPa 0,0 l/m 0 min 0 min 0 W/m 9,7 km/h (2 Bft) 97,87 %
04.12.2022 21:46 2,4 C 1,7 C -1,1 C 93 % 1016,9 hPa 0,0 l/m 0 min 0 min 0 W/m 9,7 km/h (2 Bft) 97,87 %
04.12.2022 21:48 2,4 C 1,7 C -1,1 C 93 % 1016,9 hPa 0,0 l/m 0 min 0 min 0 W/m 6,4 km/h (2 Bft) 100,00 %
04.12.2022 21:50 2,4 C 1,7 C -1,1 C 93 % 1016,9 hPa 0,0 l/m 0 min 0 min 0 W/m 6,4 km/h (2 Bft) 95,74 %
04.12.2022 21:52 2,4 C 1,7 C -1,1 C 93 % 1016,9 hPa 0,0 l/m 0 min 0 min 0 W/m 6,4 km/h (2 Bft) 100,00 %
04.12.2022 21:54 2,4 C 1,7 C -1,1 C 93 % 1016,9 hPa 0,0 l/m 0 min 0 min 0 W/m 6,4 km/h (2 Bft) 100,00 %
04.12.2022 21:56 2,4 C 1,7 C -1,1 C 93 % 1016,8 hPa 0,0 l/m 0 min 0 min 0 W/m 3,2 km/h (1 Bft) 100,00 %
04.12.2022 21:58 2,4 C 1,7 C -0,6 C 93 % 1016,9 hPa 0,0 l/m 0 min 0 min 0 W/m 6,4 km/h (2 Bft) 97,87 %
04.12.2022 22:00 2,4 C 1,7 C -0,6 C 93 % 1016,9 hPa 0,0 l/m 0 min 0 min 0 W/m 16,1 km/h (3 Bft) 95,74 %
04.12.2022 22:02 2,4 C 1,7 C -1,1 C 93 % 1016,8 hPa 0,0 l/m 0 min 0 min 0 W/m 16,1 km/h (3 Bft) 97,87 %
04.12.2022 22:04 2,4 C 1,7 C -1,1 C 93 % 1016,8 hPa 0,0 l/m 0 min 0 min 0 W/m 12,9 km/h (3 Bft) 97,83 %
04.12.2022 22:06 2,4 C 1,7 C -1,1 C 93 % 1016,7 hPa 0,0 l/m 0 min 0 min 0 W/m 12,9 km/h (3 Bft) 100,00 %
04.12.2022 22:08 2,3 C 1,7 C -1,1 C 93 % 1016,7 hPa 0,0 l/m 0 min 0 min 0 W/m 16,1 km/h (3 Bft) 100,00 %
04.12.2022 22:10 2,3 C 1,7 C -1,1 C 93 % 1016,7 hPa 0,0 l/m 0 min 0 min 0 W/m 6,4 km/h (2 Bft) 100,00 %
04.12.2022 22:12 2,3 C 1,7 C -1,1 C 93 % 1016,7 hPa 0,0 l/m 0 min 0 min 0 W/m 6,4 km/h (2 Bft) 95,74 %
04.12.2022 22:14 2,3 C 1,7 C -1,1 C 93 % 1016,6 hPa 0,0 l/m 0 min 0 min 0 W/m 6,4 km/h (2 Bft) 100,00 %
04.12.2022 22:16 2,3 C 1,7 C -1,1 C 93 % 1016,6 hPa 0,0 l/m 0 min 0 min 0 W/m 9,7 km/h (2 Bft) 95,74 %
04.12.2022 22:18 2,3 C 1,7 C -1,1 C 93 % 1016,6 hPa 0,0 l/m 0 min 0 min 0 W/m 6,4 km/h (2 Bft) 97,83 %
04.12.2022 22:20 2,3 C 1,7 C -1,1 C 93 % 1016,6 hPa 0,0 l/m 0 min 0 min 0 W/m 19,3 km/h (3 Bft) 97,87 %
04.12.2022 22:22 2,3 C 1,7 C -1,1 C 93 % 1016,6 hPa 0,0 l/m 0 min 0 min 0 W/m 12,9 km/h (3 Bft) 97,87 %
04.12.2022 22:24 2,3 C 1,7 C -1,1 C 93 % 1016,6 hPa 0,0 l/m 0 min 0 min 0 W/m 6,4 km/h (2 Bft) 97,87 %
04.12.2022 22:26 2,3 C 1,7 C -1,1 C 93 % 1016,6 hPa 0,0 l/m 0 min 0 min 0 W/m 6,4 km/h (2 Bft) 97,87 %
04.12.2022 22:28 2,3 C 1,7 C -1,1 C 93 % 1016,6 hPa 0,0 l/m 0 min 0 min 0 W/m 6,4 km/h (2 Bft) 95,65 %
04.12.2022 22:30 2,3 C 1,7 C -1,1 C 93 % 1016,7 hPa 0,0 l/m 0 min 0 min 0 W/m 12,9 km/h (3 Bft) 95,74 %
04.12.2022 22:32 2,3 C 1,7 C -1,1 C 93 % 1016,6 hPa 0,0 l/m 0 min 0 min 0 W/m 6,4 km/h (2 Bft) 97,87 %
04.12.2022 22:34 2,3 C 1,7 C -1,1 C 93 % 1016,6 hPa 0,0 l/m 0 min 0 min 0 W/m 6,4 km/h (2 Bft) 97,87 %
04.12.2022 22:36 2,3 C 1,7 C -1,1 C 93 % 1016,6 hPa 0,0 l/m 0 min 0 min 0 W/m 3,2 km/h (1 Bft) 97,87 %
04.12.2022 22:38 2,3 C 1,7 C -1,1 C 93 % 1016,6 hPa 0,0 l/m 0 min 0 min 0 W/m 9,7 km/h (2 Bft) 97,87 %
04.12.2022 22:40 2,3 C 1,7 C -1,1 C 93 % 1016,6 hPa 0,0 l/m 0 min 0 min 0 W/m 6,4 km/h (2 Bft) 97,87 %
04.12.2022 22:42 2,3 C 1,7 C -1,1 C 93 % 1016,6 hPa 0,0 l/m 0 min 0 min 0 W/m 9,7 km/h (2 Bft) 97,83 %
04.12.2022 22:44 2,3 C 1,7 C -1,1 C 93 % 1016,6 hPa 0,0 l/m 0 min 0 min 0 W/m 3,2 km/h (1 Bft) 97,87 %
04.12.2022 22:46 2,3 C 1,7 C -1,1 C 93 % 1016,6 hPa 0,0 l/m 0 min 0 min 0 W/m 9,7 km/h (2 Bft) 95,74 %
04.12.2022 22:48 2,3 C 1,7 C -1,1 C 93 % 1016,7 hPa 0,0 l/m 0 min 0 min 0 W/m 9,7 km/h (2 Bft) 100,00 %
04.12.2022 22:50 2,3 C 1,7 C -1,1 C 93 % 1016,7 hPa 0,0 l/m 0 min 0 min 0 W/m 12,9 km/h (3 Bft) 100,00 %
04.12.2022 22:52 2,3 C 1,7 C -1,1 C 93 % 1016,7 hPa 0,0 l/m 0 min 0 min 0 W/m 9,7 km/h (2 Bft) 97,83 %
04.12.2022 22:54 2,3 C 1,7 C -1,1 C 94 % 1016,7 hPa 0,0 l/m 0 min 0 min 0 W/m 9,7 km/h (2 Bft) 97,87 %
04.12.2022 22:56 2,3 C 1,7 C -1,1 C 93 % 1016,8 hPa 0,0 l/m 0 min 0 min 0 W/m 12,9 km/h (3 Bft) 97,87 %
04.12.2022 22:58 2,3 C 1,7 C -1,1 C 93 % 1016,8 hPa 0,0 l/m 0 min 0 min 0 W/m 6,4 km/h (2 Bft) 97,87 %
04.12.2022 23:00 2,3 C 1,7 C -1,1 C 93 % 1016,8 hPa 0,0 l/m 0 min 0 min 0 W/m 19,3 km/h (3 Bft) 97,87 %
04.12.2022 23:02 2,3 C 1,7 C -1,1 C 93 % 1016,8 hPa 0,0 l/m 0 min 0 min 0 W/m 12,9 km/h (3 Bft) 93,62 %
04.12.2022 23:04 2,3 C 1,7 C -1,1 C 93 % 1016,8 hPa 0,0 l/m 0 min 0 min 0 W/m 12,9 km/h (3 Bft) 97,87 %
04.12.2022 23:06 2,3 C 1,7 C -1,1 C 93 % 1016,8 hPa 0,0 l/m 0 min 0 min 0 W/m 12,9 km/h (3 Bft) 97,87 %
04.12.2022 23:08 2,2 C 1,7 C -1,1 C 93 % 1016,8 hPa 0,0 l/m 0 min 0 min 0 W/m 12,9 km/h (3 Bft) 93,62 %
04.12.2022 23:10 2,3 C 1,7 C -1,1 C 94 % 1016,9 hPa 0,0 l/m 0 min 0 min 0 W/m 12,9 km/h (3 Bft) 97,87 %
04.12.2022 23:12 2,2 C 1,7 C -1,1 C 94 % 1016,9 hPa 0,0 l/m 0 min 0 min 0 W/m 16,1 km/h (3 Bft) 97,87 %
04.12.2022 23:14 2,2 C 1,7 C -1,1 C 94 % 1016,9 hPa 0,0 l/m 0 min 0 min 0 W/m 12,9 km/h (3 Bft) 93,62 %
04.12.2022 23:16 2,3 C 1,7 C -1,1 C 94 % 1017,0 hPa 0,0 l/m 0 min 0 min 0 W/m 6,4 km/h (2 Bft) 95,65 %
04.12.2022 23:18 2,3 C 1,7 C -1,1 C 94 % 1017,0 hPa 0,0 l/m 0 min 0 min 0 W/m 9,7 km/h (2 Bft) 97,87 %
04.12.2022 23:20 2,3 C 1,7 C -1,1 C 94 % 1017,0 hPa 0,0 l/m 0 min 0 min 0 W/m 6,4 km/h (2 Bft) 95,74 %
04.12.2022 23:22 2,3 C 1,7 C -1,1 C 94 % 1017,0 hPa 0,0 l/m 0 min 0 min 0 W/m 6,4 km/h (2 Bft) 95,74 %
04.12.2022 23:24 2,3 C 1,7 C -1,1 C 94 % 1017,1 hPa 0,0 l/m 0 min 0 min 0 W/m 6,4 km/h (2 Bft) 47,50 %
04.12.2022 23:26 2,3 C 1,7 C -1,1 C 94 % 1017,1 hPa 0,0 l/m 0 min 0 min 0 W/m 9,7 km/h (2 Bft) 95,74 %
04.12.2022 23:28 2,3 C 1,7 C -1,1 C 94 % 1017,1 hPa 0,0 l/m 0 min 0 min 0 W/m 6,4 km/h (2 Bft) 97,83 %
04.12.2022 23:30 2,3 C 1,7 C -1,1 C 94 % 1017,1 hPa 0,0 l/m 0 min 2 min 0 W/m 6,4 km/h (2 Bft) 97,87 %
04.12.2022 23:32 2,3 C 1,7 C -1,1 C 94 % 1017,1 hPa 0,0 l/m 0 min 0 min 0 W/m 9,7 km/h (2 Bft) 95,74 %
04.12.2022 23:34 2,3 C 1,7 C -1,1 C 94 % 1017,1 hPa 0,0 l/m 0 min 0 min 0 W/m 6,4 km/h (2 Bft) 97,87 %
04.12.2022 23:36 2,3 C 1,7 C -1,1 C 94 % 1017,2 hPa 0,0 l/m 0 min 0 min 0 W/m 9,7 km/h (2 Bft) 97,87 %
04.12.2022 23:38 2,3 C 1,7 C -1,1 C 94 % 1017,2 hPa 0,0 l/m 0 min 0 min 0 W/m 6,4 km/h (2 Bft) 97,83 %
04.12.2022 23:40 2,3 C 1,7 C -1,1 C 94 % 1017,2 hPa 0,0 l/m 0 min 0 min 0 W/m 6,4 km/h (2 Bft) 100,00 %
04.12.2022 23:42 2,3 C 1,7 C -1,1 C 94 % 1017,1 hPa 0,0 l/m 0 min 0 min 0 W/m 6,4 km/h (2 Bft) 95,74 %
04.12.2022 23:44 2,3 C 1,7 C -1,1 C 94 % 1017,2 hPa 0,0 l/m 0 min 0 min 0 W/m 6,4 km/h (2 Bft) 97,87 %
04.12.2022 23:46 2,3 C 1,7 C -1,1 C 94 % 1017,1 hPa 0,0 l/m 0 min 0 min 0 W/m 9,7 km/h (2 Bft) 100,00 %
04.12.2022 23:48 2,3 C 1,7 C -1,1 C 94 % 1017,1 hPa 0,0 l/m 0 min 0 min 0 W/m 6,4 km/h (2 Bft) 100,00 %
04.12.2022 23:50 2,3 C 1,7 C -1,1 C 94 % 1017,1 hPa 0,0 l/m 0 min 0 min 0 W/m 6,4 km/h (2 Bft) 95,65 %
04.12.2022 23:52 2,3 C 1,7 C -1,1 C 94 % 1017,1 hPa 0,0 l/m 0 min 0 min 0 W/m 6,4 km/h (2 Bft) 100,00 %
04.12.2022 23:54 2,3 C 1,7 C -1,1 C 94 % 1017,1 hPa 0,0 l/m 0 min 0 min 0 W/m 6,4 km/h (2 Bft) 100,00 %
04.12.2022 23:56 2,3 C 1,7 C -1,1 C 94 % 1017,1 hPa 0,0 l/m 0 min 0 min 0 W/m 6,4 km/h (2 Bft) 91,49 %
04.12.2022 23:58 2,2 C 1,7 C -1,1 C 94 % 1017,1 hPa 0,0 l/m 0 min 0 min 0 W/m 3,2 km/h (1 Bft) 97,87 %
_ Min-Zeit 07:04 05:58 05:48 12:30 15:10 - - - - 06:24 00:36
Minimum _ -0,2 C -1,1 C -3,3 C 87 % 1016,3 hPa - - - - 0,0 km/h (0 Bft) 35,48 %
_ Max-Zeit 18:52 20:16 19:58 07:20 00:00 00:00 00:00 23:30 12:15 22:20 00:42
Maximum _ 2,4 C 2,2 C -0,6 C 94 % 1018,0 hPa 0,0 l/m 0 min 2 min 50 W/m 19,3 km/h
O-NO (3 Bft)
100,00 %
Durchschnitt _ 1,4 C 0,9 C -1,8 C 92 % 1017,1 hPa #0,0 l/m #0 min. #2 min. 26 W/m 7,4 km/h (2 Bft) 96,85 %
© 2022 W. Hausmann